| time (UTC) | temp F | wind direction | speed MPH | gust MPH | rain 1hr in | rain 24hr in | rain mn in | humidity % | barometer mb |
| 20260508192029 | 57 | 217 | 10.0 | 20.0 | 0.00 | 0.07 | 0.05 | 59 | 1009.5 |
| 20260508191829 | 58 | 198 | 7.0 | 20.0 | 0.00 | 0.07 | 0.05 | 61 | 1009.5 |
| 20260508191628 | 58 | 252 | 4.0 | 13.0 | 0.00 | 0.07 | 0.05 | 63 | 1009.5 |
| 20260508191428 | 57 | 243 | 4.0 | 13.0 | 0.00 | 0.07 | 0.05 | 63 | 1009.6 |
| 20260508191228 | 56 | 237 | 5.0 | 13.0 | 0.00 | 0.07 | 0.05 | 62 | 1009.5 |
| 20260508191027 | 56 | 228 | 5.0 | 13.0 | 0.00 | 0.07 | 0.05 | 63 | 1009.6 |
| 20260508190827 | 56 | 229 | 4.0 | 12.0 | 0.00 | 0.07 | 0.05 | 64 | 1009.6 |
| 20260508190627 | 55 | 230 | 5.0 | 12.0 | 0.00 | 0.07 | 0.05 | 65 | 1009.7 |
| 20260508190427 | 56 | 230 | 5.0 | 15.0 | 0.00 | 0.07 | 0.05 | 64 | 1009.6 |
| 20260508190226 | 56 | 227 | 6.0 | 15.0 | 0.00 | 0.07 | 0.05 | 64 | 1009.7 |
| 20260508190026 | 56 | 224 | 6.0 | 15.0 | 0.00 | 0.07 | 0.05 | 64 | 1009.7 |
| 20260508185826 | 56 | 219 | 7.0 | 16.0 | 0.00 | 0.07 | 0.05 | 63 | 1009.6 |
| 20260508185625 | 57 | 215 | 6.0 | 16.0 | 0.00 | 0.07 | 0.05 | 62 | 1009.7 |
| 20260508185425 | 57 | 218 | 6.0 | 16.0 | 0.00 | 0.07 | 0.05 | 62 | 1009.7 |
| 20260508185225 | 58 | 222 | 6.0 | 16.0 | 0.00 | 0.07 | 0.05 | 63 | 1009.7 |
| 20260508185024 | 57 | 219 | 7.0 | 16.0 | 0.00 | 0.07 | 0.05 | 64 | 1009.7 |
| 20260508184824 | 56 | 219 | 6.0 | 16.0 | 0.00 | 0.07 | 0.05 | 65 | 1009.7 |
| 20260508184624 | 56 | 221 | 6.0 | 14.0 | 0.00 | 0.07 | 0.05 | 64 | 1009.8 |
| 20260508184424 | 56 | 227 | 5.0 | 19.0 | 0.00 | 0.07 | 0.05 | 63 | 1009.8 |
| 20260508184223 | 56 | 226 | 6.0 | 20.0 | 0.00 | 0.07 | 0.05 | 63 | 1009.8 |
| 20260508184023 | 56 | 226 | 7.0 | 20.0 | 0.00 | 0.07 | 0.05 | 64 | 1009.7 |
| 20260508183823 | 56 | 234 | 6.0 | 20.0 | 0.00 | 0.07 | 0.05 | 64 | 1009.8 |
| 20260508183622 | 57 | 230 | 8.0 | 20.0 | 0.00 | 0.07 | 0.05 | 64 | 1009.8 |
| 20260508183422 | 57 | 218 | 10.0 | 20.0 | 0.00 | 0.07 | 0.05 | 63 | 1009.8 |
| 20260508183222 | 58 | 217 | 8.0 | 17.0 | 0.00 | 0.07 | 0.05 | 62 | 1009.8 |
| 20260508183021 | 57 | 225 | 7.0 | 13.0 | 0.00 | 0.07 | 0.05 | 64 | 1009.9 |
| 20260508182821 | 57 | 217 | 5.0 | 13.0 | 0.00 | 0.07 | 0.05 | 66 | 1010.0 |
| 20260508182621 | 56 | 220 | 4.0 | 14.0 | 0.00 | 0.07 | 0.05 | 66 | 1010.0 |
| 20260508182421 | 55 | 227 | 3.0 | 15.0 | 0.00 | 0.07 | 0.05 | 66 | 1010.0 |
| 20260508182220 | 55 | 27 | 1.0 | 15.0 | 0.00 | 0.07 | 0.05 | 66 | 1010.0 |
| 20260508182020 | 55 | 240 | 5.0 | 15.0 | 0.00 | 0.07 | 0.05 | 66 | 1010.0 |
| 20260508181820 | 55 | 226 | 7.0 | 15.0 | 0.00 | 0.07 | 0.05 | 66 | 1010.1 |
| 20260508181619 | 56 | 231 | 5.0 | 15.0 | 0.00 | 0.07 | 0.05 | 65 | 1010.1 |
| 20260508181419 | 56 | 219 | 6.0 | 11.0 | 0.00 | 0.07 | 0.05 | 64 | 1010.1 |
| 20260508181219 | 56 | 232 | 4.0 | 11.0 | 0.00 | 0.07 | 0.05 | 62 | 1010.2 |
| 20260508181018 | 56 | 242 | 2.0 | 12.0 | 0.00 | 0.07 | 0.05 | 64 | 1010.1 |
| 20260508180818 | 56 | 231 | 2.0 | 12.0 | 0.00 | 0.07 | 0.05 | 65 | 1010.2 |
| 20260508180618 | 55 | 229 | 3.0 | 12.0 | 0.00 | 0.07 | 0.05 | 65 | 1010.2 |
| 20260508180418 | 55 | 222 | 5.0 | 12.0 | 0.00 | 0.07 | 0.05 | 65 | 1010.3 |
| 20260508180217 | 55 | 231 | 4.0 | 13.0 | 0.00 | 0.07 | 0.05 | 66 | 1010.3 |
| 20260508180017 | 56 | 232 | 5.0 | 14.0 | 0.00 | 0.07 | 0.05 | 66 | 1010.3 |
| 20260508175817 | 56 | 243 | 3.0 | 14.0 | 0.00 | 0.07 | 0.05 | 65 | 1010.3 |
| 20260508175616 | 56 | 233 | 4.0 | 14.0 | 0.00 | 0.07 | 0.05 | 66 | 1010.3 |
| 20260508175416 | 56 | 211 | 8.0 | 14.0 | 0.00 | 0.07 | 0.05 | 67 | 1010.5 |
| 20260508175216 | 56 | 216 | 8.0 | 12.0 | 0.00 | 0.07 | 0.05 | 66 | 1010.4 |
| 20260508175015 | 56 | 221 | 7.0 | 12.0 | 0.00 | 0.07 | 0.05 | 66 | 1010.4 |
| 20260508174815 | 56 | 240 | 5.0 | 12.0 | 0.00 | 0.07 | 0.05 | 66 | 1010.3 |
| 20260508174615 | 56 | 233 | 6.0 | 12.0 | 0.00 | 0.07 | 0.05 | 66 | 1010.3 |
| 20260508174414 | 56 | 232 | 5.0 | 12.0 | 0.00 | 0.07 | 0.05 | 64 | 1010.3 |
| 20260508174214 | 56 | 217 | 5.0 | 11.0 | 0.00 | 0.07 | 0.05 | 64 | 1010.4 |
| 20260508174014 | 56 | 217 | 5.0 | 15.0 | 0.00 | 0.07 | 0.05 | 63 | 1010.3 |
| 20260508173814 | 56 | 251 | 3.0 | 15.0 | 0.00 | 0.07 | 0.05 | 63 | 1010.4 |
| 20260508173613 | 57 | 267 | 2.0 | 15.0 | 0.00 | 0.07 | 0.05 | 63 | 1010.3 |
| 20260508173413 | 57 | 238 | 6.0 | 15.0 | 0.00 | 0.07 | 0.05 | 63 | 1010.4 |
| 20260508173213 | 57 | 214 | 8.0 | 15.0 | 0.00 | 0.07 | 0.05 | 63 | 1010.4 |
| 20260508173012 | 57 | 228 | 5.0 | 11.0 | 0.00 | 0.07 | 0.05 | 61 | 1010.3 |
| 20260508172812 | 57 | 241 | 5.0 | 11.0 | 0.00 | 0.07 | 0.05 | 62 | 1010.3 |
| 20260508172612 | 57 | 223 | 5.0 | 12.0 | 0.00 | 0.07 | 0.05 | 64 | 1010.3 |
| 20260508172412 | 57 | 238 | 4.0 | 12.0 | 0.00 | 0.07 | 0.05 | 63 | 1010.3 |
| 20260508172211 | 57 | 232 | 5.0 | 12.0 | 0.00 | 0.07 | 0.05 | 62 | 1010.4 |
| 20260508172011 | 57 | 218 | 4.0 | 16.0 | 0.00 | 0.07 | 0.05 | 63 | 1010.4 |
| 20260508171811 | 57 | 211 | 5.0 | 17.0 | 0.00 | 0.07 | 0.05 | 63 | 1010.5 |
| 20260508171610 | 57 | 238 | 2.0 | 17.0 | 0.00 | 0.07 | 0.05 | 61 | 1010.5 |
| 20260508171410 | 58 | 230 | 2.0 | 17.0 | 0.00 | 0.07 | 0.05 | 62 | 1010.5 |
| 20260508171210 | 58 | 207 | 6.0 | 17.0 | 0.00 | 0.07 | 0.05 | 60 | 1010.6 |
| 20260508171009 | 58 | 216 | 3.0 | 9.0 | 0.00 | 0.07 | 0.05 | 54 | 1010.5 |
| 20260508170809 | 58 | 207 | 4.0 | 8.0 | 0.00 | 0.07 | 0.05 | 51 | 1010.6 |
| 20260508170609 | 58 | 87 | 2.0 | 10.0 | 0.00 | 0.07 | 0.05 | 51 | 1010.5 |
| 20260508170409 | 58 | 196 | 3.0 | 10.0 | 0.00 | 0.07 | 0.05 | 50 | 1010.5 |
| 20260508170208 | 58 | 179 | 2.0 | 12.0 | 0.00 | 0.07 | 0.05 | 50 | 1010.5 |
| 20260508170008 | 58 | 110 | 3.0 | 12.0 | 0.00 | 0.07 | 0.05 | 49 | 1010.6 |
| 20260508165808 | 59 | 204 | 3.0 | 12.0 | 0.00 | 0.07 | 0.05 | 50 | 1010.7 |
| 20260508165607 | 58 | 226 | 3.0 | 12.0 | 0.00 | 0.07 | 0.05 | 50 | 1010.7 |
| 20260508165407 | 59 | 206 | 4.0 | 12.0 | 0.00 | 0.07 | 0.05 | 49 | 1010.7 |
| 20260508165207 | 59 | 214 | 4.0 | 12.0 | 0.00 | 0.07 | 0.05 | 50 | 1010.7 |
| 20260508165006 | 59 | 204 | 4.0 | 12.0 | 0.00 | 0.07 | 0.05 | 51 | 1010.7 |
| 20260508164806 | 59 | 187 | 4.0 | 12.0 | 0.00 | 0.07 | 0.05 | 50 | 1010.7 |
| 20260508164606 | 58 | 218 | 3.0 | 10.0 | 0.00 | 0.07 | 0.05 | 52 | 1010.8 |
| 20260508164405 | 58 | 226 | 3.0 | 9.0 | 0.00 | 0.07 | 0.05 | 53 | 1010.8 |
| 20260508164205 | 58 | 200 | 4.0 | 9.0 | 0.00 | 0.07 | 0.05 | 52 | 1010.8 |
| 20260508164005 | 58 | 153 | 2.0 | 9.0 | 0.00 | 0.07 | 0.05 | 52 | 1010.9 |
| 20260508163805 | 58 | 57 | 2.0 | 9.0 | 0.00 | 0.07 | 0.05 | 52 | 1010.9 |
| 20260508163604 | 57 | 95 | 2.0 | 10.0 | 0.00 | 0.07 | 0.05 | 52 | 1010.9 |
| 20260508163404 | 57 | 63 | 3.0 | 10.0 | 0.00 | 0.07 | 0.05 | 52 | 1011.0 |
| 20260508163204 | 57 | 63 | 4.0 | 10.0 | 0.00 | 0.07 | 0.05 | 52 | 1011.0 |
| 20260508163003 | 57 | 171 | 2.0 | 11.0 | 0.00 | 0.07 | 0.05 | 52 | 1010.9 |
| 20260508162803 | 57 | 202 | 2.0 | 11.0 | 0.00 | 0.07 | 0.05 | 53 | 1011.0 |
| 20260508162603 | 57 | 247 | 4.0 | 11.0 | 0.00 | 0.07 | 0.05 | 52 | 1011.0 |
| 20260508162402 | 56 | 243 | 4.0 | 11.0 | 0.00 | 0.07 | 0.05 | 51 | 1011.1 |
| 20260508162202 | 56 | 181 | 5.0 | 11.0 | 0.00 | 0.07 | 0.05 | 50 | 1011.2 |
| 20260508162002 | 57 | 130 | 2.0 | 11.0 | 0.00 | 0.07 | 0.05 | 51 | 1011.1 |
| 20260508161802 | 56 | 110 | 2.0 | 8.0 | 0.00 | 0.07 | 0.05 | 54 | 1011.1 |
| 20260508161601 | 56 | 118 | 1.0 | 9.0 | 0.00 | 0.07 | 0.05 | 55 | 1011.0 |
| 20260508161401 | 55 | 203 | 2.0 | 9.0 | 0.00 | 0.07 | 0.05 | 54 | 1011.1 |
| 20260508161201 | 55 | 109 | 3.0 | 9.0 | 0.00 | 0.07 | 0.05 | 52 | 1011.2 |
| 20260508161000 | 55 | 112 | 4.0 | 9.0 | 0.00 | 0.07 | 0.05 | 53 | 1011.2 |
| 20260508160800 | 56 | 160 | 2.0 | 9.0 | 0.00 | 0.07 | 0.05 | 54 | 1011.2 |
| 20260508160600 | 56 | 193 | 2.0 | 5.0 | 0.00 | 0.07 | 0.05 | 55 | 1011.2 |
| 20260508160359 | 56 | 162 | 2.0 | 5.0 | 0.00 | 0.07 | 0.05 | 55 | 1011.2 |
| 20260508160159 | 55 | 163 | 1.0 | 5.0 | 0.00 | 0.07 | 0.05 | 54 | 1011.1 |
| 20260508155959 | 55 | 101 | 1.0 | 5.0 | 0.00 | 0.07 | 0.05 | 53 | 1011.3 |
| 20260508155759 | 54 | 65 | 1.0 | 5.0 | 0.00 | 0.07 | 0.05 | 55 | 1011.2 |
| 20260508155558 | 54 | 15 | 1.0 | 5.0 | 0.00 | 0.07 | 0.05 | 55 | 1011.2 |
| 20260508155358 | 54 | 331 | 1.0 | 6.0 | 0.00 | 0.07 | 0.05 | 55 | 1011.3 |
| 20260508155158 | 54 | 22 | 1.0 | 6.0 | 0.00 | 0.07 | 0.05 | 54 | 1011.4 |
| 20260508154957 | 54 | 263 | 1.0 | 6.0 | 0.00 | 0.07 | 0.05 | 57 | 1011.3 |
| 20260508154757 | 54 | 237 | 1.0 | 6.0 | 0.00 | 0.07 | 0.05 | 60 | 1011.3 |
| 20260508154557 | 54 | 217 | 2.0 | 10.0 | 0.00 | 0.07 | 0.05 | 60 | 1011.3 |
| 20260508154356 | 54 | 242 | 2.0 | 11.0 | 0.00 | 0.07 | 0.05 | 59 | 1011.3 |
| 20260508154156 | 54 | 246 | 1.0 | 11.0 | 0.00 | 0.07 | 0.05 | 60 | 1011.2 |
| 20260508153956 | 54 | 244 | 1.0 | 11.0 | 0.00 | 0.07 | 0.05 | 60 | 1011.3 |
| 20260508153756 | 54 | 222 | 3.0 | 11.0 | 0.00 | 0.07 | 0.05 | 62 | 1011.3 |
| 20260508153555 | 53 | 252 | 1.0 | 8.0 | 0.00 | 0.07 | 0.05 | 63 | 1011.3 |
| 20260508153355 | 53 | 242 | 1.0 | 8.0 | 0.00 | 0.07 | 0.05 | 64 | 1011.3 |
| 20260508153155 | 53 | 214 | 1.0 | 8.0 | 0.00 | 0.07 | 0.05 | 63 | 1011.3 |
| 20260508152954 | 53 | 183 | 3.0 | 8.0 | 0.00 | 0.07 | 0.05 | 63 | 1011.4 |
| 20260508152754 | 53 | 145 | 2.0 | 8.0 | 0.00 | 0.07 | 0.05 | 62 | 1011.4 |
| 20260508152554 | 53 | 74 | 0.0 | 8.0 | 0.00 | 0.07 | 0.05 | 61 | 1011.4 |
| 20260508152353 | 53 | 84 | 1.0 | 8.0 | 0.00 | 0.07 | 0.05 | 62 | 1011.4 |
| 20260508152153 | 53 | 205 | 3.0 | 8.0 | 0.00 | 0.07 | 0.05 | 62 | 1011.4 |
| 20260508151953 | 53 | 111 | 3.0 | 8.0 | 0.00 | 0.07 | 0.05 | 61 | 1011.4 |
| 20260508151753 | 54 | 54 | 2.0 | 7.0 | 0.00 | 0.07 | 0.05 | 61 | 1011.4 |
| 20260508151552 | 54 | 205 | 1.0 | 7.0 | 0.00 | 0.07 | 0.05 | 61 | 1011.4 |
| 20260508151352 | 54 | 229 | 2.0 | 7.0 | 0.00 | 0.07 | 0.05 | 61 | 1011.4 |
| 20260508151152 | 54 | 236 | 2.0 | 7.0 | 0.00 | 0.07 | 0.05 | 62 | 1011.4 |
| 20260508150951 | 54 | 281 | 1.0 | 7.0 | 0.00 | 0.07 | 0.05 | 62 | 1011.5 |
| 20260508150751 | 54 | 261 | 1.0 | 7.0 | 0.00 | 0.07 | 0.05 | 63 | 1011.5 |
| 20260508150551 | 53 | 174 | 0.0 | 7.0 | 0.00 | 0.07 | 0.05 | 64 | 1011.5 |
| 20260508150350 | 53 | 111 | 1.0 | 7.0 | 0.00 | 0.07 | 0.05 | 64 | 1011.5 |
| 20260508150150 | 52 | 167 | 2.0 | 7.0 | 0.00 | 0.07 | 0.05 | 64 | 1011.6 |
| 20260508145950 | 52 | 222 | 0.0 | 6.0 | 0.00 | 0.07 | 0.05 | 65 | 1011.6 |
| 20260508145750 | 52 | 252 | 2.0 | 6.0 | 0.00 | 0.07 | 0.05 | 67 | 1011.5 |
| 20260508145549 | 52 | 213 | 2.0 | 6.0 | 0.00 | 0.07 | 0.05 | 68 | 1011.6 |
| 20260508145349 | 52 | 224 | 1.0 | 6.0 | 0.00 | 0.07 | 0.05 | 68 | 1011.6 |
| 20260508145149 | 52 | 223 | 2.0 | 6.0 | 0.00 | 0.07 | 0.05 | 66 | 1011.6 |
| 20260508144948 | 52 | 261 | 1.0 | 6.0 | 0.00 | 0.07 | 0.05 | 67 | 1011.5 |
| 20260508144748 | 52 | 253 | 1.0 | 4.0 | 0.00 | 0.07 | 0.05 | 65 | 1011.7 |
| 20260508144548 | 53 | 239 | 0.0 | 6.0 | 0.00 | 0.07 | 0.05 | 66 | 1011.7 |
| 20260508144347 | 53 | 253 | 0.0 | 6.0 | 0.00 | 0.07 | 0.05 | 66 | 1011.7 |
| 20260508144147 | 53 | 332 | 0.0 | 6.0 | 0.00 | 0.07 | 0.05 | 67 | 1011.7 |
| 20260508143947 | 53 | 12 | 1.0 | 9.0 | 0.00 | 0.07 | 0.05 | 68 | 1011.7 |
| 20260508143747 | 53 | 341 | 1.0 | 9.0 | 0.00 | 0.07 | 0.05 | 69 | 1011.7 |
| 20260508143546 | 52 | 325 | 1.0 | 9.0 | 0.00 | 0.07 | 0.05 | 70 | 1011.7 |
| 20260508143346 | 52 | 243 | 2.0 | 9.0 | 0.00 | 0.07 | 0.05 | 69 | 1011.7 |
| 20260508143146 | 52 | 200 | 4.0 | 9.0 | 0.00 | 0.07 | 0.05 | 69 | 1011.7 |
| 20260508142945 | 52 | 202 | 2.0 | 9.0 | 0.00 | 0.07 | 0.05 | 69 | 1011.7 |
| 20260508142745 | 52 | 234 | 0.0 | 8.0 | 0.00 | 0.07 | 0.05 | 68 | 1011.7 |
| 20260508142545 | 51 | 205 | 2.0 | 8.0 | 0.00 | 0.07 | 0.05 | 69 | 1011.7 |
| 20260508142344 | 52 | 175 | 3.0 | 8.0 | 0.00 | 0.07 | 0.05 | 68 | 1011.7 |
| 20260508142144 | 52 | 193 | 3.0 | 8.0 | 0.00 | 0.07 | 0.05 | 69 | 1011.8 |
| 20260508141944 | 52 | 233 | 2.0 | 8.0 | 0.00 | 0.07 | 0.05 | 70 | 1011.7 |
| 20260508141744 | 52 | 195 | 2.0 | 7.0 | 0.00 | 0.07 | 0.05 | 71 | 1011.7 |
| 20260508141543 | 52 | 225 | 1.0 | 6.0 | 0.00 | 0.07 | 0.05 | 72 | 1011.5 |
| 20260508141343 | 52 | 225 | 3.0 | 6.0 | 0.00 | 0.07 | 0.05 | 72 | 1011.6 |
| 20260508141143 | 52 | 235 | 2.0 | 6.0 | 0.00 | 0.07 | 0.05 | 71 | 1011.6 |
| 20260508140942 | 52 | 328 | 0.0 | 4.0 | 0.00 | 0.07 | 0.05 | 71 | 1011.5 |
| 20260508140742 | 52 | 348 | 0.0 | 3.0 | 0.00 | 0.07 | 0.05 | 72 | 1011.5 |
| 20260508140542 | 52 | 335 | 1.0 | 3.0 | 0.00 | 0.07 | 0.05 | 72 | 1011.5 |
| 20260508140341 | 51 | 208 | 0.0 | 4.0 | 0.00 | 0.07 | 0.05 | 72 | 1011.5 |
| 20260508140141 | 51 | 207 | 0.0 | 4.0 | 0.00 | 0.07 | 0.05 | 73 | 1011.5 |
| 20260508135941 | 50 | 207 | 0.0 | 8.0 | 0.00 | 0.07 | 0.05 | 74 | 1011.5 |
| 20260508135740 | 50 | 211 | 1.0 | 8.0 | 0.00 | 0.07 | 0.05 | 73 | 1011.5 |
| 20260508135540 | 50 | 231 | 1.0 | 8.0 | 0.00 | 0.07 | 0.05 | 72 | 1011.6 |
| 20260508135340 | 50 | 228 | 2.0 | 8.0 | 0.00 | 0.07 | 0.05 | 73 | 1011.5 |
| 20260508135140 | 50 | 222 | 2.0 | 8.0 | 0.00 | 0.07 | 0.05 | 72 | 1011.6 |
| 20260508134939 | 50 | 231 | 0.0 | 6.0 | 0.00 | 0.07 | 0.05 | 73 | 1011.5 |
| 20260508134739 | 50 | 231 | 0.0 | 7.0 | 0.00 | 0.07 | 0.05 | 74 | 1011.5 |
| 20260508134539 | 50 | 231 | 0.0 | 7.0 | 0.00 | 0.07 | 0.05 | 74 | 1011.5 |
| 20260508134338 | 50 | 231 | 0.0 | 7.0 | 0.00 | 0.07 | 0.05 | 73 | 1011.5 |
| 20260508134138 | 50 | 228 | 1.0 | 7.0 | 0.00 | 0.07 | 0.05 | 73 | 1011.5 |
| 20260508133938 | 50 | 281 | 1.0 | 7.0 | 0.00 | 0.07 | 0.05 | 72 | 1011.5 |
| 20260508133738 | 50 | 328 | 0.0 | 3.0 | 0.00 | 0.07 | 0.05 | 75 | 1011.5 |
| 20260508133537 | 50 | 274 | 0.0 | 3.0 | 0.00 | 0.07 | 0.05 | 74 | 1011.4 |
| 20260508133337 | 50 | 245 | 0.0 | 2.0 | 0.00 | 0.07 | 0.05 | 74 | 1011.4 |
| 20260508133137 | 50 | 248 | 0.0 | 3.0 | 0.00 | 0.07 | 0.05 | 75 | 1011.5 |
| 20260508132936 | 49 | 274 | 1.0 | 3.0 | 0.00 | 0.07 | 0.05 | 74 | 1011.5 |
| 20260508132736 | 50 | 58 | 0.0 | 4.0 | 0.00 | 0.07 | 0.05 | 75 | 1011.5 |
| 20260508132536 | 49 | 19 | 0.0 | 4.0 | 0.00 | 0.07 | 0.05 | 75 | 1011.6 |
| 20260508132335 | 49 | 349 | 1.0 | 4.0 | 0.00 | 0.07 | 0.05 | 76 | 1011.5 |
| 20260508132135 | 48 | 15 | 1.0 | 4.0 | 0.00 | 0.07 | 0.05 | 76 | 1011.5 |
| 20260508131935 | 48 | 356 | 0.0 | 3.0 | 0.00 | 0.07 | 0.05 | 76 | 1011.6 |
| 20260508131734 | 48 | 13 | 0.0 | 3.0 | 0.00 | 0.07 | 0.05 | 77 | 1011.6 |
| 20260508131534 | 48 | 16 | 0.0 | 3.0 | 0.00 | 0.07 | 0.05 | 77 | 1011.6 |
| 20260508131334 | 48 | 11 | 1.0 | 3.0 | 0.00 | 0.07 | 0.05 | 76 | 1011.6 |
| 20260508131134 | 48 | 16 | 1.0 | 6.0 | 0.00 | 0.07 | 0.05 | 77 | 1011.6 |
| 20260508130933 | 48 | 8 | 0.0 | 6.0 | 0.00 | 0.07 | 0.05 | 79 | 1011.6 |
| 20260508130733 | 47 | 356 | 0.0 | 6.0 | 0.00 | 0.07 | 0.05 | 80 | 1011.7 |
| 20260508130533 | 46 | 53 | 1.0 | 6.0 | 0.00 | 0.07 | 0.05 | 81 | 1011.7 |
| 20260508130332 | 46 | 59 | 2.0 | 6.0 | 0.00 | 0.07 | 0.05 | 79 | 1011.7 |
| 20260508130132 | 46 | 42 | 1.0 | 6.0 | 0.00 | 0.07 | 0.05 | 80 | 1011.6 |
| 20260508125932 | 46 | 22 | 0.0 | 5.0 | 0.00 | 0.07 | 0.05 | 80 | 1011.6 |
| 20260508125731 | 46 | 39 | 2.0 | 5.0 | 0.00 | 0.07 | 0.05 | 80 | 1011.6 |
| 20260508125538 | 46 | 27 | 2.0 | 5.0 | 0.00 | 0.07 | 0.05 | 80 | 1011.7 |
| 20260508125337 | 46 | 41 | 2.0 | 5.0 | 0.00 | 0.07 | 0.05 | 81 | 1011.7 |
| 20260508125137 | 46 | 47 | 1.0 | 5.0 | 0.00 | 0.07 | 0.05 | 81 | 1011.7 |
| 20260508124937 | 45 | 18 | 1.0 | 5.0 | 0.00 | 0.07 | 0.05 | 82 | 1011.7 |
| 20260508124737 | 45 | 31 | 1.0 | 5.0 | 0.00 | 0.07 | 0.05 | 83 | 1011.7 |
| 20260508124536 | 45 | 36 | 1.0 | 5.0 | 0.00 | 0.07 | 0.05 | 83 | 1011.7 |
| 20260508124336 | 44 | 29 | 2.0 | 5.0 | 0.00 | 0.07 | 0.05 | 83 | 1011.7 |
| 20260508124136 | 44 | 36 | 3.0 | 5.0 | 0.00 | 0.07 | 0.05 | 83 | 1011.6 |
| 20260508123935 | 44 | 38 | 2.0 | 7.0 | 0.00 | 0.07 | 0.05 | 83 | 1011.7 |
| 20260508123735 | 44 | 27 | 2.0 | 7.0 | 0.00 | 0.07 | 0.05 | 83 | 1011.7 |
| 20260508123535 | 44 | 16 | 2.0 | 7.0 | 0.00 | 0.07 | 0.05 | 84 | 1011.7 |
| 20260508123334 | 44 | 30 | 2.0 | 7.0 | 0.00 | 0.07 | 0.05 | 84 | 1011.7 |
| 20260508123134 | 44 | 24 | 2.0 | 7.0 | 0.00 | 0.07 | 0.05 | 84 | 1011.7 |
| 20260508122934 | 43 | 40 | 3.0 | 7.0 | 0.00 | 0.07 | 0.05 | 84 | 1011.8 |
| 20260508122733 | 43 | 57 | 4.0 | 7.0 | 0.00 | 0.07 | 0.05 | 85 | 1011.8 |
| 20260508122533 | 43 | 47 | 3.0 | 6.0 | 0.00 | 0.07 | 0.05 | 86 | 1011.8 |
| 20260508122333 | 43 | 64 | 2.0 | 6.0 | 0.00 | 0.07 | 0.05 | 86 | 1011.7 |
| 20260508122133 | 43 | 73 | 1.0 | 6.0 | 0.00 | 0.07 | 0.05 | 86 | 1011.8 |
| 20260508121932 | 43 | 4 | 2.0 | 7.0 | 0.00 | 0.07 | 0.05 | 86 | 1011.8 |
| 20260508121732 | 42 | 14 | 1.0 | 8.0 | 0.00 | 0.07 | 0.05 | 87 | 1011.8 |
| 20260508121532 | 42 | 5 | 2.0 | 9.0 | 0.00 | 0.07 | 0.05 | 87 | 1011.8 |
| 20260508121331 | 42 | 25 | 2.0 | 9.0 | 0.00 | 0.07 | 0.05 | 87 | 1011.7 |
| 20260508121131 | 42 | 45 | 3.0 | 9.0 | 0.00 | 0.07 | 0.05 | 87 | 1011.7 |
| 20260508120931 | 42 | 19 | 4.0 | 9.0 | 0.00 | 0.07 | 0.05 | 87 | 1011.7 |
| 20260508120730 | 42 | 36 | 2.0 | 9.0 | 0.00 | 0.07 | 0.05 | 88 | 1011.8 |
| 20260508120530 | 43 | 53 | 1.0 | 7.0 | 0.00 | 0.07 | 0.05 | 88 | 1011.7 |
| 20260508120330 | 43 | 57 | 2.0 | 7.0 | 0.00 | 0.07 | 0.05 | 89 | 1011.7 |
| 20260508120130 | 43 | 316 | 1.0 | 7.0 | 0.00 | 0.07 | 0.05 | 90 | 1011.7 |
| 20260508115929 | 42 | 320 | 1.0 | 8.0 | 0.00 | 0.07 | 0.05 | 90 | 1011.7 |
| 20260508115729 | 42 | 11 | 1.0 | 8.0 | 0.00 | 0.07 | 0.05 | 90 | 1011.6 |
| 20260508115529 | 42 | 33 | 2.0 | 8.0 | 0.00 | 0.07 | 0.05 | 90 | 1011.5 |
| 20260508115328 | 42 | 350 | 2.0 | 8.0 | 0.00 | 0.07 | 0.05 | 90 | 1011.6 |
| 20260508115128 | 43 | 319 | 2.0 | 8.0 | 0.00 | 0.07 | 0.05 | 90 | 1011.5 |
| 20260508114928 | 43 | 109 | 2.0 | 6.0 | 0.00 | 0.07 | 0.05 | 91 | 1011.4 |
| 20260508114727 | 42 | 72 | 1.0 | 6.0 | 0.00 | 0.07 | 0.05 | 92 | 1011.5 |
| 20260508114527 | 42 | 17 | 0.0 | 5.0 | 0.00 | 0.07 | 0.05 | 92 | 1011.4 |
| 20260508114327 | 42 | 103 | 0.0 | 5.0 | 0.00 | 0.07 | 0.05 | 92 | 1011.4 |
| 20260508114127 | 42 | 98 | 0.0 | 5.0 | 0.00 | 0.07 | 0.05 | 92 | 1011.4 |
| 20260508113926 | 42 | 90 | 0.0 | 5.0 | 0.00 | 0.07 | 0.05 | 92 | 1011.3 |
| 20260508113726 | 42 | 60 | 0.0 | 2.0 | 0.00 | 0.07 | 0.05 | 92 | 1011.3 |
| 20260508113526 | 42 | 60 | 0.0 | 2.0 | 0.00 | 0.07 | 0.05 | 92 | 1011.2 |
| 20260508113325 | 42 | 60 | 0.0 | 2.0 | 0.00 | 0.07 | 0.05 | 92 | 1011.2 |
| 20260508113125 | 42 | 58 | 0.0 | 2.0 | 0.00 | 0.07 | 0.05 | 92 | 1011.2 |
| 20260508112925 | 42 | 58 | 0.0 | 2.0 | 0.00 | 0.07 | 0.05 | 92 | 1011.2 |
| 20260508112724 | 41 | 286 | 0.0 | 2.0 | 0.00 | 0.07 | 0.05 | 92 | 1011.2 |
| 20260508112524 | 41 | 275 | 0.0 | 2.0 | 0.01 | 0.07 | 0.05 | 92 | 1011.2 |
| 20260508112324 | 41 | 270 | 0.0 | 2.0 | 0.01 | 0.07 | 0.05 | 92 | 1011.1 |
| 20260508112124 | 41 | 241 | 0.0 | 2.0 | 0.01 | 0.07 | 0.05 | 92 | 1011.0 |
| 20260508111923 | 41 | 221 | 0.0 | 2.0 | 0.01 | 0.07 | 0.05 | 92 | 1011.1 |
| 20260508111723 | 41 | 235 | 0.0 | 2.0 | 0.01 | 0.07 | 0.05 | 92 | 1011.0 |
| 20260508111523 | 41 | 232 | 0.0 | 2.0 | 0.01 | 0.07 | 0.05 | 92 | 1011.0 |
| 20260508111322 | 41 | 224 | 0.0 | 2.0 | 0.01 | 0.07 | 0.05 | 92 | 1011.0 |
| 20260508111122 | 41 | 224 | 0.0 | 2.0 | 0.01 | 0.07 | 0.05 | 92 | 1011.0 |
| 20260508110922 | 41 | 224 | 0.0 | 2.0 | 0.01 | 0.07 | 0.05 | 92 | 1011.0 |
| 20260508110721 | 41 | 223 | 0.0 | 3.0 | 0.01 | 0.07 | 0.05 | 92 | 1011.0 |
| 20260508110521 | 41 | 204 | 0.0 | 3.0 | 0.01 | 0.07 | 0.05 | 92 | 1010.9 |
| 20260508110321 | 41 | 127 | 0.0 | 3.0 | 0.02 | 0.07 | 0.05 | 92 | 1010.9 |
| 20260508110121 | 41 | 127 | 0.0 | 4.0 | 0.02 | 0.07 | 0.05 | 92 | 1010.9 |
| 20260508105920 | 41 | 189 | 1.0 | 4.0 | 0.02 | 0.07 | 0.05 | 92 | 1010.9 |
| 20260508105720 | 41 | 219 | 1.0 | 4.0 | 0.02 | 0.07 | 0.05 | 92 | 1010.9 |
| 20260508105520 | 40 | 183 | 1.0 | 4.0 | 0.03 | 0.07 | 0.05 | 92 | 1010.9 |
| 20260508105319 | 40 | 187 | 1.0 | 4.0 | 0.03 | 0.07 | 0.05 | 92 | 1010.9 |
| 20260508105119 | 40 | 141 | 0.0 | 3.0 | 0.03 | 0.07 | 0.05 | 92 | 1010.8 |
| 20260508104919 | 40 | 134 | 0.0 | 4.0 | 0.04 | 0.07 | 0.05 | 92 | 1010.8 |
| 20260508104718 | 40 | 206 | 1.0 | 4.0 | 0.04 | 0.07 | 0.05 | 92 | 1010.8 |
| 20260508104518 | 40 | 187 | 1.0 | 4.0 | 0.04 | 0.07 | 0.05 | 92 | 1010.7 |
| 20260508104318 | 40 | 200 | 1.0 | 4.0 | 0.04 | 0.07 | 0.05 | 92 | 1010.7 |
| 20260508104118 | 40 | 216 | 1.0 | 3.0 | 0.04 | 0.07 | 0.05 | 92 | 1010.8 |
| 20260508103917 | 40 | 203 | 1.0 | 4.0 | 0.04 | 0.07 | 0.05 | 92 | 1010.7 |
| 20260508103717 | 40 | 202 | 1.0 | 4.0 | 0.04 | 0.07 | 0.05 | 91 | 1010.6 |
| 20260508103517 | 40 | 151 | 1.0 | 5.0 | 0.04 | 0.07 | 0.05 | 91 | 1010.7 |
| 20260508103316 | 40 | 270 | 1.0 | 5.0 | 0.04 | 0.07 | 0.05 | 91 | 1010.7 |
| 20260508103116 | 40 | 211 | 1.0 | 5.0 | 0.04 | 0.07 | 0.05 | 91 | 1010.7 |
| 20260508102916 | 40 | 209 | 1.0 | 5.0 | 0.04 | 0.07 | 0.05 | 91 | 1010.7 |
| 20260508102715 | 40 | 317 | 0.0 | 4.0 | 0.04 | 0.07 | 0.05 | 91 | 1010.6 |
| 20260508102515 | 40 | 161 | 1.0 | 6.0 | 0.03 | 0.06 | 0.04 | 91 | 1010.7 |
| 20260508102315 | 40 | 266 | 1.0 | 6.0 | 0.03 | 0.06 | 0.04 | 91 | 1010.7 |
| 20260508102115 | 40 | 255 | 1.0 | 6.0 | 0.03 | 0.06 | 0.04 | 91 | 1010.8 |
| 20260508101914 | 40 | 114 | 1.0 | 6.0 | 0.03 | 0.06 | 0.04 | 91 | 1010.7 |
| 20260508101714 | 40 | 103 | 1.0 | 6.0 | 0.03 | 0.06 | 0.04 | 90 | 1010.7 |
| 20260508101514 | 40 | 150 | 2.0 | 6.0 | 0.03 | 0.06 | 0.04 | 90 | 1010.7 |
| 20260508101313 | 40 | 191 | 2.0 | 6.0 | 0.03 | 0.06 | 0.04 | 90 | 1010.7 |
| 20260508101113 | 40 | 208 | 2.0 | 6.0 | 0.03 | 0.06 | 0.04 | 90 | 1010.7 |
| 20260508100913 | 41 | 226 | 1.0 | 5.0 | 0.03 | 0.06 | 0.04 | 90 | 1010.8 |
| 20260508100712 | 41 | 244 | 1.0 | 5.0 | 0.03 | 0.06 | 0.04 | 90 | 1010.9 |
| 20260508100512 | 41 | 354 | 1.0 | 5.0 | 0.02 | 0.05 | 0.03 | 90 | 1010.8 |
| 20260508100312 | 41 | 47 | 2.0 | 5.0 | 0.02 | 0.05 | 0.03 | 90 | 1010.9 |
| 20260508100112 | 41 | 147 | 2.0 | 5.0 | 0.02 | 0.05 | 0.03 | 90 | 1011.0 |
| 20260508095911 | 41 | 184 | 2.0 | 5.0 | 0.02 | 0.05 | 0.03 | 90 | 1010.9 |
| 20260508095711 | 41 | 338 | 1.0 | 5.0 | 0.01 | 0.04 | 0.02 | 91 | 1011.1 |
| 20260508095511 | 41 | 309 | 0.0 | 2.0 | 0.01 | 0.04 | 0.02 | 91 | 1011.1 |
| 20260508095310 | 41 | 50 | 0.0 | 2.0 | 0.01 | 0.04 | 0.02 | 90 | 1011.0 |
| 20260508095110 | 41 | 13 | 0.0 | 2.0 | 0.00 | 0.03 | 0.01 | 90 | 1011.0 |
| 20260508094910 | 41 | 25 | 0.0 | 2.0 | 0.00 | 0.03 | 0.01 | 90 | 1011.0 |
| 20260508094709 | 41 | 31 | 0.0 | 3.0 | 0.00 | 0.03 | 0.01 | 90 | 1010.9 |
| 20260508094509 | 41 | 272 | 0.0 | 3.0 | 0.00 | 0.03 | 0.01 | 90 | 1010.9 |
| 20260508094309 | 41 | 221 | 0.0 | 3.0 | 0.00 | 0.03 | 0.01 | 90 | 1010.8 |
| 20260508094109 | 41 | 164 | 0.0 | 3.0 | 0.00 | 0.03 | 0.01 | 90 | 1010.7 |
| 20260508093908 | 41 | 186 | 0.0 | 3.0 | 0.00 | 0.03 | 0.01 | 90 | 1010.6 |
| 20260508093708 | 41 | 229 | 0.0 | 3.0 | 0.00 | 0.03 | 0.01 | 89 | 1010.7 |
| 20260508093508 | 41 | 0 | 0.0 | 3.0 | 0.00 | 0.03 | 0.01 | 89 | 1010.6 |
| 20260508093307 | 41 | 229 | 0.0 | 3.0 | 0.00 | 0.03 | 0.01 | 89 | 1010.5 |
| 20260508093107 | 41 | 229 | 0.0 | 3.0 | 0.00 | 0.03 | 0.01 | 89 | 1010.5 |
| 20260508092907 | 41 | 229 | 0.0 | 2.0 | 0.00 | 0.03 | 0.01 | 89 | 1010.5 |
| 20260508092706 | 41 | 227 | 0.0 | 2.0 | 0.00 | 0.03 | 0.01 | 89 | 1010.6 |
| 20260508092506 | 41 | 0 | 0.0 | 2.0 | 0.01 | 0.03 | 0.01 | 89 | 1010.5 |
| 20260508092313 | 41 | 0 | 0.0 | 2.0 | 0.01 | 0.03 | 0.01 | 89 | 1010.6 |
| 20260508092105 | 41 | 217 | 0.0 | 2.0 | 0.01 | 0.03 | 0.01 | 88 | 1010.6 |
| 20260508091905 | 41 | 216 | 0.0 | 4.0 | 0.01 | 0.03 | 0.01 | 88 | 1010.6 |
| 20260508091705 | 42 | 216 | 0.0 | 5.0 | 0.01 | 0.03 | 0.01 | 88 | 1010.5 |
| 20260508091505 | 42 | 327 | 0.0 | 5.0 | 0.01 | 0.03 | 0.01 | 88 | 1010.6 |
| 20260508091304 | 42 | 100 | 1.0 | 5.0 | 0.01 | 0.03 | 0.01 | 88 | 1010.6 |
| 20260508091104 | 42 | 261 | 1.0 | 5.0 | 0.01 | 0.03 | 0.01 | 88 | 1010.6 |
| 20260508090904 | 42 | 222 | 1.0 | 4.0 | 0.01 | 0.03 | 0.01 | 88 | 1010.6 |
| 20260508090703 | 42 | 223 | 0.0 | 6.0 | 0.01 | 0.03 | 0.01 | 88 | 1010.6 |
| 20260508090503 | 42 | 262 | 0.0 | 6.0 | 0.01 | 0.03 | 0.01 | 88 | 1010.6 |
| 20260508090303 | 42 | 153 | 1.0 | 6.0 | 0.01 | 0.03 | 0.01 | 88 | 1010.6 |
| 20260508085902 | 41 | 135 | 1.0 | 4.0 | 0.01 | 0.03 | 0.01 | 88 | 1010.7 |
| 20260508085702 | 41 | 135 | 1.0 | 4.0 | 0.01 | 0.03 | 0.01 | 88 | 1010.8 |
| 20260508085502 | 41 | 126 | 1.0 | 3.0 | 0.01 | 0.03 | 0.01 | 88 | 1010.7 |
| 20260508085301 | 41 | 134 | 0.0 | 3.0 | 0.01 | 0.03 | 0.01 | 88 | 1010.7 |
| 20260508085101 | 41 | 119 | 0.0 | 3.0 | 0.01 | 0.03 | 0.01 | 88 | 1010.6 |
| 20260508084901 | 41 | 119 | 0.0 | 3.0 | 0.01 | 0.03 | 0.01 | 88 | 1010.6 |
| 20260508084700 | 41 | 119 | 0.0 | 3.0 | 0.01 | 0.03 | 0.01 | 89 | 1010.6 |
| 20260508084500 | 41 | 134 | 1.0 | 3.0 | 0.01 | 0.03 | 0.01 | 89 | 1010.6 |
| 20260508084300 | 41 | 225 | 0.0 | 3.0 | 0.01 | 0.03 | 0.01 | 89 | 1010.6 |
| 20260508084100 | 41 | 184 | 0.0 | 3.0 | 0.01 | 0.03 | 0.01 | 89 | 1010.6 |
| 20260508083859 | 41 | 24 | 0.0 | 3.0 | 0.01 | 0.03 | 0.01 | 89 | 1010.7 |
| 20260508083659 | 41 | 262 | 0.0 | 3.0 | 0.01 | 0.03 | 0.01 | 89 | 1010.7 |
| 20260508083459 | 41 | 248 | 0.0 | 4.0 | 0.01 | 0.03 | 0.01 | 89 | 1010.6 |
| 20260508083258 | 41 | 241 | 0.0 | 4.0 | 0.01 | 0.03 | 0.01 | 89 | 1010.6 |
| 20260508083058 | 41 | 95 | 0.0 | 4.0 | 0.01 | 0.03 | 0.01 | 89 | 1010.6 |
| 20260508082858 | 41 | 153 | 0.0 | 4.0 | 0.01 | 0.03 | 0.01 | 89 | 1010.6 |
| 20260508082657 | 41 | 200 | 0.0 | 4.0 | 0.01 | 0.03 | 0.01 | 89 | 1010.6 |
| 20260508082457 | 41 | 238 | 0.0 | 2.0 | 0.00 | 0.02 | 0.00 | 89 | 1010.7 |
| 20260508082257 | 41 | 254 | 0.0 | 3.0 | 0.00 | 0.02 | 0.00 | 89 | 1010.7 |
| 20260508082056 | 41 | 254 | 0.0 | 3.0 | 0.00 | 0.02 | 0.00 | 89 | 1010.6 |
| 20260508081856 | 41 | 254 | 0.0 | 3.0 | 0.00 | 0.02 | 0.00 | 88 | 1010.6 |
| 20260508081656 | 41 | 270 | 0.0 | 3.0 | 0.00 | 0.02 | 0.00 | 88 | 1010.5 |
| 20260508081456 | 41 | 298 | 0.0 | 4.0 | 0.00 | 0.02 | 0.00 | 88 | 1010.5 |
| 20260508081255 | 41 | 47 | 0.0 | 4.0 | 0.00 | 0.02 | 0.00 | 88 | 1010.5 |
| 20260508081055 | 41 | 47 | 0.0 | 4.0 | 0.00 | 0.02 | 0.00 | 88 | 1010.5 |
| 20260508080855 | 42 | 84 | 1.0 | 4.0 | 0.00 | 0.02 | 0.00 | 88 | 1010.6 |
| 20260508080654 | 42 | 211 | 1.0 | 4.0 | 0.00 | 0.02 | 0.00 | 88 | 1010.6 |
| 20260508080454 | 42 | 187 | 1.0 | 4.0 | 0.00 | 0.02 | 0.00 | 88 | 1010.7 |
| 20260508080254 | 42 | 216 | 0.0 | 4.0 | 0.00 | 0.02 | 0.00 | 88 | 1010.7 |
| 20260508080053 | 42 | 237 | 0.0 | 5.0 | 0.00 | 0.02 | 0.00 | 88 | 1010.7 |
| 20260508075853 | 42 | 233 | 0.0 | 5.0 | 0.00 | 0.02 | 0.00 | 88 | 1010.7 |
| 20260508075653 | 42 | 213 | 1.0 | 5.0 | 0.00 | 0.02 | 0.00 | 88 | 1010.7 |
| 20260508075453 | 42 | 182 | 1.0 | 5.0 | 0.00 | 0.02 | 0.00 | 88 | 1010.8 |
| 20260508075252 | 42 | 200 | 1.0 | 5.0 | 0.00 | 0.02 | 0.00 | 88 | 1010.8 |
| 20260508075052 | 42 | 141 | 0.0 | 4.0 | 0.00 | 0.02 | 0.00 | 88 | 1010.7 |
| 20260508074852 | 42 | 158 | 1.0 | 6.0 | 0.00 | 0.02 | 0.00 | 88 | 1010.8 |
| 20260508074651 | 42 | 264 | 1.0 | 6.0 | 0.00 | 0.02 | 0.00 | 87 | 1010.7 |
| 20260508074451 | 42 | 223 | 1.0 | 10.0 | 0.00 | 0.02 | 0.00 | 87 | 1010.7 |
| 20260508074251 | 42 | 226 | 1.0 | 11.0 | 0.00 | 0.02 | 0.00 | 87 | 1010.6 |
| 20260508074050 | 42 | 212 | 2.0 | 11.0 | 0.00 | 0.02 | 0.00 | 87 | 1010.6 |
| 20260508073850 | 42 | 217 | 2.0 | 11.0 | 0.00 | 0.02 | 0.00 | 87 | 1010.6 |
| 20260508073650 | 42 | 208 | 3.0 | 11.0 | 0.00 | 0.02 | 0.00 | 87 | 1010.7 |
| 20260508073450 | 42 | 179 | 2.0 | 11.0 | 0.00 | 0.02 | 0.00 | 87 | 1010.8 |
| 20260508073249 | 42 | 183 | 1.0 | 8.0 | 0.00 | 0.02 | 0.00 | 86 | 1010.9 |
| 20260508073049 | 42 | 220 | 2.0 | 9.0 | 0.00 | 0.02 | 0.00 | 86 | 1011.0 |
| 20260508072849 | 42 | 200 | 1.0 | 10.0 | 0.00 | 0.02 | 0.00 | 86 | 1011.0 |
| 20260508072648 | 42 | 194 | 2.0 | 10.0 | 0.00 | 0.02 | 0.00 | 85 | 1011.0 |
| 20260508072448 | 42 | 229 | 2.0 | 10.0 | 0.00 | 0.02 | 0.00 | 84 | 1011.0 |
| 20260508072248 | 42 | 230 | 2.0 | 10.0 | 0.00 | 0.02 | 0.00 | 84 | 1011.0 |
| 20260508072047 | 42 | 185 | 2.0 | 10.0 | 0.00 | 0.02 | 0.00 | 84 | 1011.0 |
| 20260508071847 | 42 | 165 | 2.0 | 6.0 | 0.00 | 0.02 | 0.00 | 85 | 1011.0 |
| 20260508071647 | 42 | 138 | 2.0 | 6.0 | 0.00 | 0.02 | 0.00 | 85 | 1011.1 |
| 20260508071447 | 42 | 139 | 1.0 | 5.0 | 0.00 | 0.02 | 0.00 | 86 | 1011.0 |
| 20260508071246 | 42 | 232 | 1.0 | 5.0 | 0.00 | 0.02 | 0.00 | 86 | 1011.0 |
| 20260508071046 | 42 | 239 | 1.0 | 5.0 | 0.00 | 0.02 | 0.00 | 86 | 1011.1 |
| 20260508070846 | 42 | 162 | 1.0 | 4.0 | 0.00 | 0.02 | 0.00 | 86 | 1011.1 |
| 20260508070645 | 42 | 144 | 1.0 | 3.0 | 0.00 | 0.02 | 0.00 | 86 | 1011.0 |
| 20260508070445 | 42 | 172 | 1.0 | 2.0 | 0.00 | 0.02 | 0.00 | 86 | 1011.1 |
| 20260508070245 | 42 | 226 | 0.0 | 2.0 | 0.00 | 0.02 | 0.00 | 86 | 1011.1 |
| 20260508070044 | 42 | 226 | 0.0 | 2.0 | 0.00 | 0.02 | 0.00 | 86 | 1011.1 |
| 20260508065844 | 42 | 226 | 0.0 | 2.0 | 0.00 | 0.02 | 0.00 | 86 | 1011.0 |
| 20260508065644 | 42 | 226 | 0.0 | 2.0 | 0.00 | 0.02 | 0.00 | 86 | 1011.0 |
| 20260508065444 | 42 | 226 | 0.0 | 2.0 | 0.00 | 0.02 | 0.00 | 86 | 1011.0 |
| 20260508065243 | 42 | 227 | 0.0 | 2.0 | 0.00 | 0.02 | 0.00 | 86 | 1011.0 |
| 20260508065043 | 42 | 227 | 0.0 | 2.0 | 0.00 | 0.02 | 0.00 | 86 | 1011.0 |
| 20260508064843 | 42 | 227 | 0.0 | 3.0 | 0.00 | 0.02 | 0.00 | 86 | 1011.0 |
| 20260508064642 | 42 | 227 | 0.0 | 3.0 | 0.00 | 0.02 | 0.00 | 86 | 1011.0 |
| 20260508064442 | 42 | 227 | 0.0 | 3.0 | 0.00 | 0.02 | 0.00 | 86 | 1011.0 |
| 20260508064242 | 42 | 225 | 1.0 | 3.0 | 0.00 | 0.02 | 0.00 | 86 | 1011.0 |
| 20260508064041 | 42 | 234 | 1.0 | 3.0 | 0.00 | 0.02 | 0.00 | 86 | 1011.0 |
| 20260508063841 | 42 | 229 | 1.0 | 3.0 | 0.00 | 0.02 | 0.00 | 86 | 1011.1 |
| 20260508063641 | 42 | 211 | 0.0 | 3.0 | 0.00 | 0.02 | 0.00 | 86 | 1011.1 |
| 20260508063441 | 42 | 235 | 0.0 | 2.0 | 0.00 | 0.02 | 0.00 | 86 | 1011.1 |
| 20260508063240 | 42 | 235 | 0.0 | 2.0 | 0.00 | 0.02 | 0.00 | 86 | 1011.0 |
| 20260508063040 | 42 | 235 | 0.0 | 2.0 | 0.00 | 0.02 | 0.00 | 86 | 1011.1 |
| 20260508062840 | 42 | 235 | 0.0 | 2.0 | 0.00 | 0.02 | 0.00 | 86 | 1011.1 |
| 20260508062639 | 42 | 0 | 0.0 | 2.0 | 0.00 | 0.02 | 0.00 | 86 | 1011.1 |
| 20260508062439 | 42 | 235 | 0.0 | 2.0 | 0.00 | 0.02 | 0.00 | 86 | 1011.2 |
| 20260508062239 | 42 | 235 | 0.0 | 2.0 | 0.00 | 0.02 | 0.00 | 86 | 1011.0 |
| 20260508062038 | 42 | 235 | 0.0 | 2.0 | 0.00 | 0.02 | 0.00 | 86 | 1011.1 |
| 20260508061838 | 42 | 235 | 0.0 | 2.0 | 0.00 | 0.02 | 0.00 | 86 | 1011.1 |
| 20260508061638 | 42 | 235 | 0.0 | 2.0 | 0.00 | 0.02 | 0.00 | 86 | 1011.1 |
| 20260508061437 | 42 | 235 | 0.0 | 2.0 | 0.00 | 0.02 | 0.00 | 86 | 1011.2 |
| 20260508061237 | 42 | 235 | 0.0 | 2.0 | 0.00 | 0.02 | 0.00 | 86 | 1011.2 |
| 20260508061037 | 42 | 235 | 0.0 | 2.0 | 0.00 | 0.02 | 0.00 | 86 | 1011.1 |
| 20260508060837 | 42 | 222 | 0.0 | 2.0 | 0.00 | 0.02 | 0.00 | 86 | 1011.2 |
| 20260508060636 | 42 | 197 | 0.0 | 2.0 | 0.00 | 0.02 | 0.00 | 86 | 1011.3 |
| 20260508060436 | 42 | 272 | 0.0 | 3.0 | 0.00 | 0.02 | 0.00 | 86 | 1011.2 |
| 20260508060236 | 42 | 299 | 0.0 | 5.0 | 0.00 | 0.02 | 0.00 | 86 | 1011.2 |
| 20260508060035 | 42 | 188 | 1.0 | 5.0 | 0.00 | 0.02 | 0.00 | 85 | 1011.2 |
| 20260508055835 | 42 | 136 | 0.0 | 5.0 | 0.00 | 0.02 | 0.00 | 85 | 1011.2 |
| 20260508055635 | 42 | 200 | 1.0 | 5.0 | 0.00 | 0.02 | 0.00 | 85 | 1011.3 |
| 20260508055434 | 42 | 206 | 1.0 | 5.0 | 0.00 | 0.02 | 0.00 | 85 | 1011.2 |
| 20260508055234 | 42 | 173 | 0.0 | 3.0 | 0.00 | 0.02 | 0.00 | 85 | 1011.2 |
| 20260508055034 | 42 | 177 | 1.0 | 3.0 | 0.00 | 0.02 | 0.00 | 85 | 1011.3 |
| 20260508054834 | 42 | 218 | 1.0 | 3.0 | 0.00 | 0.02 | 0.00 | 85 | 1011.3 |
| 20260508054633 | 42 | 271 | 1.0 | 3.0 | 0.00 | 0.02 | 0.00 | 85 | 1011.3 |
| 20260508054433 | 42 | 271 | 1.0 | 3.0 | 0.00 | 0.02 | 0.00 | 85 | 1011.3 |
| 20260508054233 | 42 | 264 | 0.0 | 3.0 | 0.00 | 0.02 | 0.00 | 85 | 1011.3 |
| 20260508054032 | 42 | 218 | 0.0 | 2.0 | 0.00 | 0.02 | 0.00 | 85 | 1011.3 |
| 20260508053832 | 42 | 185 | 0.0 | 3.0 | 0.00 | 0.02 | 0.00 | 85 | 1011.3 |
| 20260508053632 | 42 | 108 | 0.0 | 3.0 | 0.00 | 0.02 | 0.00 | 85 | 1011.3 |
| 20260508053431 | 42 | 108 | 0.0 | 3.0 | 0.00 | 0.02 | 0.00 | 85 | 1011.2 |
| 20260508053231 | 42 | 131 | 0.0 | 5.0 | 0.00 | 0.02 | 0.00 | 85 | 1011.4 |
| 20260508053031 | 42 | 104 | 1.0 | 5.0 | 0.00 | 0.02 | 0.00 | 85 | 1011.4 |
| 20260508052831 | 42 | 116 | 1.0 | 5.0 | 0.00 | 0.02 | 0.00 | 85 | 1011.5 |
| 20260508052630 | 42 | 219 | 1.0 | 5.0 | 0.00 | 0.02 | 0.00 | 85 | 1011.4 |
| 20260508052430 | 42 | 131 | 1.0 | 5.0 | 0.00 | 0.02 | 0.00 | 85 | 1011.5 |
| 20260508052230 | 42 | 335 | 1.0 | 4.0 | 0.00 | 0.02 | 0.00 | 86 | 1011.5 |
| 20260508052029 | 42 | 41 | 0.0 | 5.0 | 0.00 | 0.02 | 0.00 | 86 | 1011.5 |
| 20260508051829 | 42 | 13 | 1.0 | 5.0 | 0.00 | 0.02 | 0.00 | 86 | 1011.4 |
| 20260508051629 | 42 | 246 | 0.0 | 5.0 | 0.00 | 0.02 | 0.00 | 86 | 1011.4 |
| 20260508051428 | 42 | 249 | 1.0 | 5.0 | 0.00 | 0.02 | 0.00 | 86 | 1011.4 |
| 20260508051228 | 42 | 301 | 1.0 | 5.0 | 0.00 | 0.02 | 0.00 | 86 | 1011.5 |
| 20260508051028 | 42 | 331 | 0.0 | 2.0 | 0.00 | 0.02 | 0.00 | 86 | 1011.5 |
| 20260508050828 | 42 | 312 | 0.0 | 2.0 | 0.00 | 0.02 | 0.00 | 86 | 1011.5 |
| 20260508050627 | 41 | 245 | 0.0 | 2.0 | 0.00 | 0.02 | 0.00 | 86 | 1011.5 |
| 20260508050427 | 41 | 180 | 1.0 | 2.0 | 0.00 | 0.02 | 0.00 | 87 | 1011.5 |
| 20260508050227 | 41 | 74 | 0.0 | 2.0 | 0.00 | 0.02 | 0.00 | 87 | 1011.5 |
| 20260508050026 | 41 | 249 | 0.0 | 2.0 | 0.00 | 0.02 | 0.00 | 87 | 1011.5 |
| 20260508045826 | 41 | 249 | 0.0 | 3.0 | 0.00 | 0.02 | 0.00 | 87 | 1011.5 |
| 20260508045626 | 41 | 250 | 0.0 | 4.0 | 0.00 | 0.02 | 0.00 | 87 | 1011.4 |
| 20260508045425 | 41 | 249 | 0.0 | 4.0 | 0.00 | 0.02 | 0.00 | 88 | 1011.4 |
| 20260508045225 | 41 | 246 | 0.0 | 4.0 | 0.00 | 0.02 | 0.00 | 88 | 1011.4 |
| 20260508045025 | 41 | 237 | 1.0 | 4.0 | 0.00 | 0.02 | 0.00 | 88 | 1011.4 |
| 20260508044825 | 41 | 212 | 0.0 | 4.0 | 0.00 | 0.02 | 0.00 | 88 | 1011.4 |
| 20260508044624 | 41 | 219 | 0.0 | 2.0 | 0.00 | 0.02 | 0.00 | 88 | 1011.4 |
| 20260508044424 | 41 | 219 | 0.0 | 3.0 | 0.00 | 0.02 | 0.00 | 88 | 1011.4 |
| 20260508044224 | 41 | 219 | 0.0 | 3.0 | 0.00 | 0.02 | 0.00 | 88 | 1011.4 |
| 20260508044023 | 41 | 219 | 0.0 | 3.0 | 0.00 | 0.02 | 0.00 | 88 | 1011.4 |
| 20260508043823 | 41 | 220 | 0.0 | 3.0 | 0.00 | 0.02 | 0.00 | 88 | 1011.4 |
| 20260508043623 | 41 | 256 | 0.0 | 3.0 | 0.00 | 0.02 | 0.00 | 88 | 1011.4 |
| 20260508043422 | 40 | 283 | 0.0 | 2.0 | 0.00 | 0.02 | 0.00 | 88 | 1011.4 |
| 20260508043222 | 40 | 283 | 0.0 | 1.0 | 0.00 | 0.02 | 0.00 | 88 | 1011.4 |
| 20260508043022 | 41 | 283 | 0.0 | 1.0 | 0.00 | 0.02 | 0.00 | 88 | 1011.3 |
| 20260508042822 | 41 | 283 | 0.0 | 1.0 | 0.00 | 0.02 | 0.00 | 88 | 1011.3 |
| 20260508042621 | 41 | 273 | 0.0 | 1.0 | 0.00 | 0.02 | 0.00 | 88 | 1011.3 |
| 20260508042421 | 41 | 182 | 0.0 | 1.0 | 0.00 | 0.02 | 0.00 | 88 | 1011.3 |
| 20260508042221 | 41 | 165 | 0.0 | 1.0 | 0.00 | 0.02 | 0.00 | 88 | 1011.3 |
| 20260508042020 | 41 | 184 | 0.0 | 2.0 | 0.00 | 0.02 | 0.00 | 88 | 1011.3 |
| 20260508041820 | 41 | 179 | 0.0 | 2.0 | 0.00 | 0.02 | 0.00 | 87 | 1011.4 |
| 20260508041620 | 41 | 150 | 0.0 | 2.0 | 0.00 | 0.02 | 0.00 | 87 | 1011.4 |
| 20260508041419 | 41 | 150 | 0.0 | 3.0 | 0.00 | 0.02 | 0.00 | 87 | 1011.4 |
| 20260508041219 | 41 | 157 | 0.0 | 4.0 | 0.00 | 0.02 | 0.00 | 87 | 1011.4 |
| 20260508041019 | 41 | 215 | 1.0 | 4.0 | 0.00 | 0.02 | 0.00 | 87 | 1011.4 |
| 20260508040819 | 41 | 238 | 1.0 | 5.0 | 0.00 | 0.02 | 0.00 | 87 | 1011.4 |
| 20260508040618 | 41 | 238 | 1.0 | 5.0 | 0.00 | 0.02 | 0.00 | 87 | 1011.4 |
| 20260508040418 | 41 | 219 | 1.0 | 5.0 | 0.00 | 0.02 | 0.00 | 87 | 1011.4 |
| 20260508040218 | 41 | 208 | 1.0 | 5.0 | 0.00 | 0.02 | 0.00 | 87 | 1011.4 |
| 20260508040017 | 41 | 218 | 1.0 | 5.0 | 0.00 | 0.02 | 0.00 | 86 | 1011.4 |
| 20260508035817 | 41 | 238 | 1.0 | 5.0 | 0.00 | 0.02 | 0.02 | 86 | 1011.4 |
| 20260508035617 | 41 | 228 | 1.0 | 5.0 | 0.00 | 0.02 | 0.02 | 86 | 1011.4 |
| 20260508035416 | 41 | 188 | 0.0 | 5.0 | 0.00 | 0.02 | 0.02 | 86 | 1011.4 |
| 20260508035216 | 41 | 205 | 1.0 | 4.0 | 0.00 | 0.02 | 0.02 | 86 | 1011.3 |
| 20260508035016 | 40 | 220 | 0.0 | 4.0 | 0.00 | 0.02 | 0.02 | 86 | 1011.4 |
| 20260508034816 | 40 | 217 | 0.0 | 4.0 | 0.00 | 0.02 | 0.02 | 86 | 1011.3 |
| 20260508034615 | 40 | 234 | 0.0 | 2.0 | 0.00 | 0.02 | 0.02 | 86 | 1011.3 |
| 20260508034415 | 40 | 234 | 0.0 | 2.0 | 0.00 | 0.02 | 0.02 | 86 | 1011.3 |
| 20260508034215 | 40 | 234 | 0.0 | 2.0 | 0.00 | 0.02 | 0.02 | 86 | 1011.3 |
| 20260508034014 | 40 | 234 | 0.0 | 2.0 | 0.00 | 0.02 | 0.02 | 86 | 1011.3 |
| 20260508033814 | 40 | 234 | 0.0 | 2.0 | 0.00 | 0.02 | 0.02 | 86 | 1011.3 |
| 20260508033614 | 40 | 230 | 0.0 | 3.0 | 0.00 | 0.02 | 0.02 | 86 | 1011.3 |
| 20260508033413 | 40 | 226 | 0.0 | 3.0 | 0.00 | 0.02 | 0.02 | 86 | 1011.3 |
| 20260508033213 | 40 | 220 | 0.0 | 3.0 | 0.00 | 0.02 | 0.02 | 86 | 1011.2 |
| 20260508033013 | 40 | 179 | 0.0 | 3.0 | 0.00 | 0.02 | 0.02 | 86 | 1011.2 |
| 20260508032813 | 40 | 192 | 0.0 | 3.0 | 0.00 | 0.02 | 0.02 | 86 | 1011.2 |
| 20260508032612 | 40 | 249 | 0.0 | 3.0 | 0.00 | 0.02 | 0.02 | 86 | 1011.3 |
| 20260508032412 | 40 | 245 | 0.0 | 3.0 | 0.00 | 0.02 | 0.02 | 86 | 1011.3 |
| 20260508032212 | 40 | 215 | 0.0 | 3.0 | 0.00 | 0.02 | 0.02 | 86 | 1011.3 |
| 20260508032011 | 40 | 221 | 1.0 | 3.0 | 0.00 | 0.02 | 0.02 | 86 | 1011.3 |
| 20260508031811 | 40 | 179 | 0.0 | 2.0 | 0.00 | 0.02 | 0.02 | 86 | 1011.4 |
| 20260508031611 | 40 | 144 | 0.0 | 2.0 | 0.00 | 0.02 | 0.02 | 86 | 1011.3 |
| 20260508031410 | 40 | 145 | 0.0 | 2.0 | 0.00 | 0.02 | 0.02 | 86 | 1011.3 |
| 20260508031210 | 40 | 263 | 0.0 | 2.0 | 0.00 | 0.02 | 0.02 | 86 | 1011.3 |
| 20260508031010 | 40 | 0 | 0.0 | 3.0 | 0.00 | 0.02 | 0.02 | 86 | 1011.3 |
| 20260508030809 | 40 | 0 | 0.0 | 3.0 | 0.00 | 0.02 | 0.02 | 86 | 1011.4 |
| 20260508030609 | 40 | 0 | 0.0 | 3.0 | 0.00 | 0.02 | 0.02 | 86 | 1011.3 |
| 20260508030409 | 40 | 145 | 0.0 | 3.0 | 0.00 | 0.02 | 0.02 | 86 | 1011.3 |
| 20260508030209 | 40 | 154 | 0.0 | 3.0 | 0.00 | 0.02 | 0.02 | 86 | 1011.4 |
| 20260508030008 | 40 | 231 | 0.0 | 2.0 | 0.00 | 0.02 | 0.02 | 86 | 1011.4 |
| 20260508025808 | 40 | 231 | 0.0 | 2.0 | 0.00 | 0.02 | 0.02 | 86 | 1011.4 |
| 20260508025608 | 40 | 231 | 0.0 | 2.0 | 0.00 | 0.02 | 0.02 | 86 | 1011.4 |
| 20260508025407 | 40 | 231 | 0.0 | 2.0 | 0.00 | 0.02 | 0.02 | 86 | 1011.4 |
| 20260508025207 | 40 | 231 | 0.0 | 2.0 | 0.00 | 0.02 | 0.02 | 86 | 1011.5 |
| 20260508025007 | 40 | 231 | 0.0 | 2.0 | 0.00 | 0.02 | 0.02 | 86 | 1011.5 |
| 20260508024806 | 40 | 231 | 0.0 | 2.0 | 0.00 | 0.02 | 0.02 | 86 | 1011.4 |
| 20260508024606 | 41 | 231 | 0.0 | 2.0 | 0.00 | 0.02 | 0.02 | 86 | 1011.4 |
| 20260508024406 | 41 | 231 | 0.0 | 2.0 | 0.00 | 0.02 | 0.02 | 86 | 1011.4 |
| 20260508024206 | 41 | 226 | 0.0 | 2.0 | 0.00 | 0.02 | 0.02 | 86 | 1011.4 |
| 20260508024005 | 41 | 217 | 0.0 | 2.0 | 0.00 | 0.02 | 0.02 | 86 | 1011.4 |
| 20260508023805 | 41 | 216 | 0.0 | 2.0 | 0.00 | 0.02 | 0.02 | 86 | 1011.4 |
| 20260508023605 | 41 | 216 | 0.0 | 2.0 | 0.00 | 0.02 | 0.02 | 86 | 1011.4 |
| 20260508023404 | 41 | 217 | 0.0 | 3.0 | 0.00 | 0.02 | 0.02 | 86 | 1011.4 |
| 20260508023204 | 41 | 217 | 0.0 | 3.0 | 0.00 | 0.02 | 0.02 | 86 | 1011.4 |
| 20260508023004 | 41 | 212 | 0.0 | 3.0 | 0.00 | 0.02 | 0.02 | 86 | 1011.4 |
| 20260508022803 | 41 | 211 | 0.0 | 3.0 | 0.00 | 0.02 | 0.02 | 86 | 1011.4 |
| 20260508022603 | 41 | 223 | 0.0 | 2.0 | 0.00 | 0.02 | 0.02 | 85 | 1011.4 |
| 20260508022403 | 41 | 223 | 0.0 | 2.0 | 0.00 | 0.02 | 0.02 | 85 | 1011.4 |
| 20260508022203 | 41 | 219 | 0.0 | 2.0 | 0.00 | 0.02 | 0.02 | 85 | 1011.4 |
| 20260508022003 | 41 | 214 | 0.0 | 2.0 | 0.00 | 0.02 | 0.02 | 85 | 1011.4 |
| 20260508021802 | 41 | 214 | 0.0 | 2.0 | 0.00 | 0.02 | 0.02 | 85 | 1011.4 |
| 20260508021602 | 41 | 214 | 0.0 | 2.0 | 0.00 | 0.02 | 0.02 | 85 | 1011.3 |
| 20260508021401 | 41 | 214 | 0.0 | 2.0 | 0.00 | 0.02 | 0.02 | 85 | 1011.3 |
| 20260508021201 | 41 | 218 | 0.0 | 2.0 | 0.00 | 0.02 | 0.02 | 85 | 1011.3 |
| 20260508021001 | 41 | 217 | 0.0 | 2.0 | 0.00 | 0.02 | 0.02 | 85 | 1011.3 |
| 20260508020800 | 41 | 201 | 0.0 | 1.0 | 0.00 | 0.02 | 0.02 | 85 | 1011.3 |
| 20260508020600 | 41 | 201 | 0.0 | 1.0 | 0.00 | 0.02 | 0.02 | 84 | 1011.3 |
| 20260508020400 | 42 | 201 | 0.0 | 2.0 | 0.00 | 0.02 | 0.02 | 84 | 1011.3 |
| 20260508020200 | 42 | 201 | 0.0 | 2.0 | 0.00 | 0.02 | 0.02 | 84 | 1011.3 |
| 20260508015959 | 42 | 0 | 0.0 | 2.0 | 0.00 | 0.02 | 0.02 | 84 | 1011.3 |
| 20260508015759 | 42 | 210 | 0.0 | 2.0 | 0.00 | 0.02 | 0.02 | 84 | 1011.2 |
| 20260508015559 | 42 | 235 | 0.0 | 2.0 | 0.00 | 0.02 | 0.02 | 84 | 1011.2 |
| 20260508015358 | 42 | 261 | 0.0 | 2.0 | 0.00 | 0.02 | 0.02 | 84 | 1011.2 |
| 20260508015158 | 42 | 131 | 0.0 | 2.0 | 0.00 | 0.02 | 0.02 | 84 | 1011.2 |
| 20260508014958 | 42 | 131 | 0.0 | 2.0 | 0.00 | 0.02 | 0.02 | 83 | 1011.2 |
| 20260508014757 | 42 | 141 | 0.0 | 2.0 | 0.00 | 0.02 | 0.02 | 84 | 1011.1 |
| 20260508014557 | 42 | 159 | 0.0 | 2.0 | 0.00 | 0.02 | 0.02 | 83 | 1011.2 |
| 20260508014357 | 42 | 133 | 0.0 | 2.0 | 0.00 | 0.02 | 0.02 | 83 | 1011.1 |
| 20260508014157 | 42 | 53 | 0.0 | 2.0 | 0.00 | 0.02 | 0.02 | 83 | 1011.1 |
| 20260508013956 | 42 | 53 | 0.0 | 2.0 | 0.00 | 0.02 | 0.02 | 83 | 1011.2 |
| 20260508013756 | 42 | 53 | 0.0 | 2.0 | 0.00 | 0.02 | 0.02 | 83 | 1011.1 |
| 20260508013556 | 43 | 53 | 0.0 | 2.0 | 0.00 | 0.02 | 0.02 | 83 | 1011.1 |
| 20260508013355 | 43 | 51 | 0.0 | 2.0 | 0.00 | 0.02 | 0.02 | 83 | 1011.1 |
| 20260508013155 | 43 | 0 | 0.0 | 2.0 | 0.00 | 0.02 | 0.02 | 83 | 1011.1 |
| 20260508012955 | 43 | 48 | 0.0 | 2.0 | 0.00 | 0.02 | 0.02 | 83 | 1011.0 |
| 20260508012754 | 43 | 0 | 0.0 | 2.0 | 0.00 | 0.02 | 0.02 | 83 | 1011.1 |
| 20260508012554 | 43 | 48 | 0.0 | 2.0 | 0.00 | 0.02 | 0.02 | 83 | 1011.1 |
| 20260508012354 | 43 | 48 | 0.0 | 2.0 | 0.00 | 0.02 | 0.02 | 82 | 1011.1 |
| 20260508012154 | 43 | 48 | 0.0 | 2.0 | 0.00 | 0.02 | 0.02 | 82 | 1011.0 |
| 20260508011953 | 43 | 48 | 0.0 | 2.0 | 0.00 | 0.02 | 0.02 | 82 | 1011.0 |
| 20260508011753 | 43 | 48 | 0.0 | 2.0 | 0.00 | 0.02 | 0.02 | 82 | 1011.0 |
| 20260508011553 | 43 | 48 | 0.0 | 2.0 | 0.00 | 0.02 | 0.02 | 82 | 1010.9 |
| 20260508011352 | 43 | 48 | 0.0 | 2.0 | 0.00 | 0.02 | 0.02 | 82 | 1010.9 |
| 20260508011152 | 43 | 48 | 0.0 | 2.0 | 0.00 | 0.02 | 0.02 | 82 | 1010.9 |
| 20260508010952 | 43 | 48 | 0.0 | 1.0 | 0.00 | 0.02 | 0.02 | 82 | 1010.9 |
| 20260508010751 | 43 | 0 | 0.0 | 1.0 | 0.00 | 0.02 | 0.02 | 82 | 1010.9 |
| 20260508010551 | 44 | 0 | 0.0 | 0.0 | 0.00 | 0.02 | 0.02 | 81 | 1010.9 |
| 20260508010351 | 44 | 0 | 0.0 | 0.0 | 0.00 | 0.02 | 0.02 | 81 | 1010.8 |
| 20260508010151 | 44 | 0 | 0.0 | 2.0 | 0.00 | 0.02 | 0.02 | 80 | 1010.8 |
| 20260508005950 | 44 | 0 | 0.0 | 2.0 | 0.00 | 0.02 | 0.02 | 80 | 1010.8 |
| 20260508005750 | 44 | 0 | 0.0 | 2.0 | 0.00 | 0.02 | 0.02 | 80 | 1010.7 |
| 20260508005550 | 44 | 48 | 0.0 | 2.0 | 0.00 | 0.02 | 0.02 | 79 | 1010.7 |
| 20260508005349 | 44 | 48 | 0.0 | 2.0 | 0.00 | 0.02 | 0.02 | 79 | 1010.7 |
| 20260508005149 | 44 | 48 | 0.0 | 2.0 | 0.00 | 0.02 | 0.02 | 79 | 1010.8 |
| 20260508004949 | 44 | 48 | 0.0 | 4.0 | 0.00 | 0.02 | 0.02 | 79 | 1010.7 |
| 20260508004748 | 45 | 48 | 0.0 | 4.0 | 0.00 | 0.02 | 0.02 | 79 | 1010.7 |
| 20260508004548 | 45 | 48 | 0.0 | 4.0 | 0.00 | 0.02 | 0.02 | 79 | 1010.8 |
| 20260508004348 | 45 | 47 | 1.0 | 4.0 | 0.00 | 0.02 | 0.02 | 79 | 1010.7 |
| 20260508004148 | 45 | 32 | 1.0 | 4.0 | 0.00 | 0.02 | 0.02 | 78 | 1010.8 |
| 20260508003947 | 45 | 22 | 0.0 | 3.0 | 0.00 | 0.02 | 0.02 | 79 | 1010.7 |
| 20260508003747 | 45 | 22 | 0.0 | 3.0 | 0.00 | 0.02 | 0.02 | 78 | 1010.7 |
| 20260508003547 | 45 | 22 | 0.0 | 3.0 | 0.00 | 0.02 | 0.02 | 78 | 1010.7 |
| 20260508003346 | 45 | 22 | 0.0 | 3.0 | 0.00 | 0.02 | 0.02 | 78 | 1010.7 |
| 20260508003146 | 45 | 22 | 0.0 | 3.0 | 0.00 | 0.02 | 0.02 | 78 | 1010.6 |
| 20260508002946 | 45 | 22 | 0.0 | 4.0 | 0.00 | 0.02 | 0.02 | 78 | 1010.6 |
| 20260508002745 | 45 | 22 | 0.0 | 5.0 | 0.00 | 0.02 | 0.02 | 77 | 1010.6 |
| 20260508002545 | 46 | 22 | 0.0 | 5.0 | 0.00 | 0.02 | 0.02 | 78 | 1010.6 |
| 20260508002345 | 46 | 22 | 0.0 | 5.0 | 0.00 | 0.02 | 0.02 | 77 | 1010.5 |
| 20260508002145 | 46 | 39 | 1.0 | 5.0 | 0.00 | 0.02 | 0.02 | 77 | 1010.4 |
| 20260508001944 | 46 | 90 | 1.0 | 4.0 | 0.00 | 0.02 | 0.02 | 77 | 1010.4 |
| 20260508001744 | 46 | 288 | 1.0 | 5.0 | 0.00 | 0.02 | 0.02 | 77 | 1010.5 |
| 20260508001544 | 46 | 50 | 1.0 | 5.0 | 0.00 | 0.02 | 0.02 | 77 | 1010.5 |
| 20260508001343 | 46 | 46 | 0.0 | 6.0 | 0.00 | 0.02 | 0.02 | 76 | 1010.5 |
| 20260508001143 | 46 | 48 | 1.0 | 6.0 | 0.00 | 0.02 | 0.02 | 76 | 1010.5 |
| 20260508000943 | 46 | 90 | 1.0 | 6.0 | 0.00 | 0.02 | 0.02 | 76 | 1010.5 |
| 20260508000742 | 46 | 202 | 1.0 | 6.0 | 0.00 | 0.02 | 0.02 | 77 | 1010.5 |
| 20260508000542 | 46 | 75 | 2.0 | 6.0 | 0.00 | 0.02 | 0.02 | 77 | 1010.5 |
| 20260508000342 | 46 | 21 | 2.0 | 9.0 | 0.00 | 0.02 | 0.02 | 76 | 1010.6 |
| 20260508000142 | 46 | 75 | 2.0 | 9.0 | 0.00 | 0.02 | 0.02 | 77 | 1010.6 |
| 20260507235941 | 46 | 97 | 1.0 | 9.0 | 0.00 | 0.02 | 0.02 | 78 | 1010.6 |
| 20260507235741 | 46 | 50 | 1.0 | 9.0 | 0.00 | 0.02 | 0.02 | 78 | 1010.6 |
| 20260507235541 | 46 | 126 | 1.0 | 9.0 | 0.00 | 0.02 | 0.02 | 78 | 1010.5 |
| 20260507235340 | 46 | 109 | 1.0 | 9.0 | 0.00 | 0.02 | 0.02 | 79 | 1010.6 |
| 20260507235140 | 46 | 42 | 1.0 | 6.0 | 0.00 | 0.02 | 0.02 | 79 | 1010.6 |
| 20260507234940 | 46 | 146 | 1.0 | 6.0 | 0.00 | 0.02 | 0.02 | 78 | 1010.5 |
| 20260507234739 | 46 | 124 | 1.0 | 5.0 | 0.00 | 0.02 | 0.02 | 79 | 1010.5 |
| 20260507234539 | 46 | 120 | 1.0 | 4.0 | 0.00 | 0.02 | 0.02 | 79 | 1010.5 |
| 20260507234339 | 46 | 132 | 1.0 | 6.0 | 0.00 | 0.02 | 0.02 | 79 | 1010.4 |
| 20260507234138 | 46 | 137 | 2.0 | 6.0 | 0.00 | 0.02 | 0.02 | 79 | 1010.4 |
| 20260507233938 | 46 | 94 | 1.0 | 6.0 | 0.00 | 0.02 | 0.02 | 80 | 1010.4 |
| 20260507233738 | 46 | 88 | 0.0 | 6.0 | 0.00 | 0.02 | 0.02 | 80 | 1010.5 |
| 20260507233538 | 46 | 76 | 1.0 | 6.0 | 0.00 | 0.02 | 0.02 | 79 | 1010.5 |
| 20260507233337 | 46 | 227 | 1.0 | 7.0 | 0.00 | 0.02 | 0.02 | 79 | 1010.5 |
| 20260507233137 | 46 | 129 | 2.0 | 7.0 | 0.00 | 0.02 | 0.02 | 79 | 1010.5 |
| 20260507232937 | 46 | 196 | 1.0 | 7.0 | 0.00 | 0.02 | 0.02 | 79 | 1010.5 |
| 20260507232736 | 46 | 189 | 2.0 | 7.0 | 0.00 | 0.02 | 0.02 | 78 | 1010.5 |
| 20260507232536 | 46 | 167 | 3.0 | 7.0 | 0.00 | 0.02 | 0.02 | 78 | 1010.6 |
| 20260507232336 | 46 | 95 | 1.0 | 7.0 | 0.00 | 0.02 | 0.02 | 79 | 1010.5 |
| 20260507232136 | 47 | 61 | 1.0 | 5.0 | 0.00 | 0.02 | 0.02 | 79 | 1010.5 |
| 20260507231935 | 46 | 330 | 1.0 | 5.0 | 0.00 | 0.02 | 0.02 | 79 | 1010.5 |
| 20260507231735 | 46 | 352 | 1.0 | 12.0 | 0.00 | 0.02 | 0.02 | 79 | 1010.5 |
| 20260507231535 | 46 | 344 | 1.0 | 12.0 | 0.00 | 0.02 | 0.02 | 78 | 1010.5 |
| 20260507231334 | 46 | 270 | 1.0 | 12.0 | 0.00 | 0.02 | 0.02 | 78 | 1010.6 |
| 20260507231134 | 46 | 214 | 2.0 | 12.0 | 0.00 | 0.02 | 0.02 | 78 | 1010.5 |
| 20260507230934 | 46 | 207 | 3.0 | 12.0 | 0.00 | 0.02 | 0.02 | 77 | 1010.5 |
| 20260507230733 | 46 | 226 | 3.0 | 10.0 | 0.00 | 0.02 | 0.02 | 77 | 1010.5 |
| 20260507230533 | 47 | 183 | 3.0 | 10.0 | 0.00 | 0.02 | 0.02 | 78 | 1010.5 |
| 20260507230333 | 47 | 217 | 4.0 | 11.0 | 0.00 | 0.02 | 0.02 | 78 | 1010.5 |
| 20260507230132 | 47 | 180 | 3.0 | 11.0 | 0.00 | 0.02 | 0.02 | 78 | 1010.6 |
| 20260507225932 | 47 | 126 | 2.0 | 11.0 | 0.00 | 0.02 | 0.02 | 78 | 1010.5 |
| 20260507225732 | 47 | 139 | 4.0 | 11.0 | 0.00 | 0.02 | 0.02 | 78 | 1010.5 |
| 20260507225532 | 47 | 143 | 4.0 | 11.0 | 0.00 | 0.02 | 0.02 | 78 | 1010.5 |
| 20260507225331 | 47 | 171 | 4.0 | 10.0 | 0.00 | 0.02 | 0.02 | 77 | 1010.5 |
| 20260507225131 | 47 | 225 | 3.0 | 10.0 | 0.00 | 0.02 | 0.02 | 78 | 1010.4 |
| 20260507224931 | 47 | 166 | 2.0 | 11.0 | 0.00 | 0.02 | 0.02 | 78 | 1010.4 |
| 20260507224730 | 47 | 89 | 2.0 | 11.0 | 0.00 | 0.02 | 0.02 | 78 | 1010.4 |
| 20260507224530 | 47 | 93 | 3.0 | 11.0 | 0.00 | 0.02 | 0.02 | 77 | 1010.4 |
| 20260507224330 | 47 | 127 | 4.0 | 12.0 | 0.00 | 0.02 | 0.02 | 77 | 1010.4 |
| 20260507224129 | 47 | 195 | 3.0 | 12.0 | 0.00 | 0.02 | 0.02 | 77 | 1010.4 |
| 20260507223929 | 47 | 126 | 2.0 | 12.0 | 0.00 | 0.02 | 0.02 | 77 | 1010.3 |
| 20260507223729 | 48 | 112 | 3.0 | 12.0 | 0.00 | 0.02 | 0.02 | 77 | 1010.4 |
| 20260507223529 | 48 | 115 | 3.0 | 14.0 | 0.00 | 0.02 | 0.02 | 76 | 1010.4 |
| 20260507223328 | 48 | 107 | 4.0 | 14.0 | 0.00 | 0.02 | 0.02 | 76 | 1010.3 |
| 20260507223128 | 48 | 122 | 3.0 | 14.0 | 0.00 | 0.02 | 0.02 | 76 | 1010.4 |
| 20260507222928 | 48 | 115 | 4.0 | 14.0 | 0.00 | 0.02 | 0.02 | 75 | 1010.3 |
| 20260507222727 | 49 | 132 | 4.0 | 14.0 | 0.00 | 0.02 | 0.02 | 75 | 1010.3 |
| 20260507222527 | 49 | 65 | 2.0 | 8.0 | 0.00 | 0.02 | 0.02 | 75 | 1010.3 |
| 20260507222327 | 49 | 49 | 1.0 | 4.0 | 0.00 | 0.02 | 0.02 | 74 | 1010.2 |
| 20260507222126 | 49 | 40 | 0.0 | 2.0 | 0.01 | 0.02 | 0.02 | 75 | 1010.1 |
| 20260507221926 | 49 | 40 | 0.0 | 2.0 | 0.01 | 0.02 | 0.02 | 75 | 1010.1 |
| 20260507221726 | 49 | 37 | 0.0 | 3.0 | 0.01 | 0.02 | 0.02 | 75 | 1010.2 |
| 20260507221526 | 49 | 37 | 0.0 | 3.0 | 0.01 | 0.02 | 0.02 | 76 | 1010.1 |
| 20260507221325 | 49 | 43 | 0.0 | 3.0 | 0.01 | 0.02 | 0.02 | 76 | 1010.1 |
| 20260507221125 | 49 | 30 | 1.0 | 3.0 | 0.01 | 0.02 | 0.02 | 76 | 1010.0 |
| 20260507220925 | 49 | 306 | 0.0 | 3.0 | 0.01 | 0.02 | 0.02 | 76 | 1010.0 |
| 20260507220724 | 49 | 287 | 0.0 | 1.0 | 0.02 | 0.02 | 0.02 | 75 | 1010.0 |
| 20260507220524 | 49 | 281 | 0.0 | 1.0 | 0.02 | 0.02 | 0.02 | 76 | 1010.0 |
| 20260507220324 | 49 | 281 | 0.0 | 1.0 | 0.02 | 0.02 | 0.02 | 75 | 1010.0 |
| 20260507220123 | 49 | 281 | 0.0 | 1.0 | 0.02 | 0.02 | 0.02 | 76 | 1010.0 |
| 20260507215923 | 49 | 281 | 0.0 | 1.0 | 0.02 | 0.02 | 0.02 | 75 | 1010.0 |
| 20260507215723 | 49 | 281 | 0.0 | 1.0 | 0.02 | 0.02 | 0.02 | 75 | 1010.1 |
| 20260507215523 | 49 | 281 | 0.0 | 1.0 | 0.02 | 0.02 | 0.02 | 75 | 1010.1 |
| 20260507215322 | 48 | 281 | 0.0 | 2.0 | 0.02 | 0.02 | 0.02 | 74 | 1010.0 |
| 20260507215122 | 48 | 281 | 0.0 | 3.0 | 0.02 | 0.02 | 0.02 | 75 | 1010.0 |
| 20260507214922 | 48 | 211 | 0.0 | 3.0 | 0.02 | 0.02 | 0.02 | 76 | 1010.0 |
| 20260507214721 | 48 | 298 | 0.0 | 3.0 | 0.02 | 0.02 | 0.02 | 76 | 1009.9 |
| 20260507214521 | 48 | 302 | 0.0 | 3.0 | 0.02 | 0.02 | 0.02 | 76 | 1010.0 |
| 20260507214321 | 48 | 241 | 0.0 | 3.0 | 0.02 | 0.02 | 0.02 | 77 | 1010.0 |
| 20260507214120 | 48 | 218 | 0.0 | 4.0 | 0.02 | 0.02 | 0.02 | 76 | 1010.0 |
| 20260507213920 | 48 | 218 | 0.0 | 5.0 | 0.02 | 0.02 | 0.02 | 77 | 1010.0 |
| 20260507213720 | 48 | 240 | 0.0 | 5.0 | 0.02 | 0.02 | 0.02 | 78 | 1010.0 |
| 20260507213520 | 48 | 147 | 1.0 | 6.0 | 0.02 | 0.02 | 0.02 | 78 | 1010.0 |
| 20260507213319 | 48 | 135 | 2.0 | 6.0 | 0.02 | 0.02 | 0.02 | 78 | 1010.0 |
| 20260507213119 | 48 | 73 | 1.0 | 7.0 | 0.02 | 0.02 | 0.02 | 77 | 1010.1 |
| 20260507212919 | 48 | 49 | 2.0 | 7.0 | 0.02 | 0.02 | 0.02 | 76 | 1010.0 |
| 20260507212718 | 48 | 102 | 1.0 | 8.0 | 0.02 | 0.02 | 0.02 | 76 | 1010.0 |
| 20260507212519 | 48 | 92 | 2.0 | 8.0 | 0.02 | 0.02 | 0.02 | 75 | 1010.1 |
| 20260507212318 | 48 | 133 | 2.0 | 8.0 | 0.02 | 0.02 | 0.02 | 75 | 1010.0 |
| 20260507212117 | 49 | 179 | 3.0 | 8.0 | 0.01 | 0.01 | 0.01 | 73 | 1010.1 |
| 20260507211917 | 49 | 173 | 2.0 | 6.0 | 0.01 | 0.01 | 0.01 | 73 | 1010.0 |
| 20260507211717 | 49 | 158 | 1.0 | 6.0 | 0.01 | 0.01 | 0.01 | 73 | 1009.9 |
| 20260507211517 | 49 | 175 | 2.0 | 6.0 | 0.01 | 0.01 | 0.01 | 70 | 1009.9 |
| 20260507211316 | 50 | 263 | 1.0 | 6.0 | 0.01 | 0.01 | 0.01 | 69 | 1009.9 |
| 20260507211116 | 50 | 81 | 1.0 | 7.0 | 0.01 | 0.01 | 0.01 | 69 | 1009.9 |
| 20260507210916 | 50 | 115 | 2.0 | 7.0 | 0.00 | 0.00 | 0.00 | 66 | 1009.9 |
| 20260507210715 | 50 | 98 | 1.0 | 8.0 | 0.00 | 0.00 | 0.00 | 64 | 1010.0 |
| 20260507210515 | 51 | 144 | 2.0 | 8.0 | 0.00 | 0.00 | 0.00 | 63 | 1009.9 |
| 20260507210315 | 51 | 98 | 2.0 | 8.0 | 0.00 | 0.00 | 0.00 | 61 | 1009.9 |
| 20260507210114 | 51 | 149 | 3.0 | 8.0 | 0.00 | 0.00 | 0.00 | 60 | 1009.8 |
| 20260507205914 | 52 | 102 | 3.0 | 8.0 | 0.00 | 0.00 | 0.00 | 58 | 1009.8 |
| 20260507205714 | 52 | 138 | 3.0 | 8.0 | 0.00 | 0.00 | 0.00 | 57 | 1009.7 |
| 20260507205514 | 53 | 142 | 2.0 | 8.0 | 0.00 | 0.00 | 0.00 | 57 | 1009.7 |
| 20260507205313 | 53 | 84 | 1.0 | 8.0 | 0.00 | 0.00 | 0.00 | 56 | 1009.7 |
| 20260507205113 | 53 | 130 | 1.0 | 7.0 | 0.00 | 0.00 | 0.00 | 55 | 1009.6 |
| 20260507204913 | 53 | 48 | 2.0 | 7.0 | 0.00 | 0.00 | 0.00 | 55 | 1009.5 |
| 20260507204712 | 53 | 106 | 1.0 | 5.0 | 0.00 | 0.00 | 0.00 | 55 | 1009.5 |
| 20260507204512 | 53 | 115 | 1.0 | 5.0 | 0.00 | 0.00 | 0.00 | 55 | 1009.4 |
| 20260507204312 | 53 | 135 | 0.0 | 5.0 | 0.00 | 0.00 | 0.00 | 54 | 1009.4 |
| 20260507204111 | 54 | 209 | 1.0 | 5.0 | 0.00 | 0.00 | 0.00 | 54 | 1009.4 |
| 20260507203911 | 54 | 179 | 1.0 | 4.0 | 0.00 | 0.00 | 0.00 | 54 | 1009.4 |
| 20260507203711 | 54 | 158 | 1.0 | 4.0 | 0.00 | 0.00 | 0.00 | 54 | 1009.4 |
| 20260507203511 | 54 | 147 | 0.0 | 5.0 | 0.00 | 0.00 | 0.00 | 54 | 1009.4 |
| 20260507203310 | 54 | 143 | 0.0 | 5.0 | 0.00 | 0.00 | 0.00 | 54 | 1009.4 |
| 20260507203110 | 54 | 53 | 0.0 | 5.0 | 0.00 | 0.00 | 0.00 | 54 | 1009.4 |
| 20260507202910 | 54 | 25 | 2.0 | 6.0 | 0.00 | 0.00 | 0.00 | 54 | 1009.5 |
| 20260507202709 | 55 | 10 | 2.0 | 6.0 | 0.00 | 0.00 | 0.00 | 54 | 1009.4 |
| 20260507202509 | 55 | 3 | 2.0 | 6.0 | 0.00 | 0.00 | 0.00 | 54 | 1009.4 |
| 20260507202309 | 55 | 94 | 2.0 | 6.0 | 0.00 | 0.00 | 0.00 | 54 | 1009.5 |
| 20260507202108 | 55 | 105 | 2.0 | 6.0 | 0.00 | 0.00 | 0.00 | 54 | 1009.5 |
| 20260507201908 | 55 | 101 | 1.0 | 3.0 | 0.00 | 0.00 | 0.00 | 54 | 1009.6 |
| 20260507201708 | 55 | 267 | 0.0 | 3.0 | 0.00 | 0.00 | 0.00 | 56 | 1009.4 |
| 20260507201508 | 54 | 228 | 0.0 | 3.0 | 0.00 | 0.00 | 0.00 | 56 | 1009.5 |
| 20260507201307 | 54 | 231 | 0.0 | 3.0 | 0.00 | 0.00 | 0.00 | 56 | 1009.5 |
| 20260507201107 | 54 | 139 | 1.0 | 3.0 | 0.00 | 0.00 | 0.00 | 56 | 1009.5 |
| 20260507200907 | 54 | 137 | 1.0 | 3.0 | 0.00 | 0.00 | 0.00 | 56 | 1009.6 |
| 20260507200706 | 54 | 211 | 1.0 | 6.0 | 0.00 | 0.00 | 0.00 | 56 | 1009.7 |
| 20260507200506 | 54 | 251 | 1.0 | 6.0 | 0.00 | 0.00 | 0.00 | 56 | 1009.7 |
| 20260507200306 | 54 | 0 | 0.0 | 6.0 | 0.00 | 0.00 | 0.00 | 57 | 1009.7 |
| 20260507200105 | 54 | 240 | 2.0 | 6.0 | 0.00 | 0.00 | 0.00 | 56 | 1009.7 |
| 20260507195905 | 54 | 248 | 2.0 | 6.0 | 0.00 | 0.00 | 0.00 | 57 | 1009.7 |
| 20260507195705 | 54 | 207 | 2.0 | 6.0 | 0.00 | 0.00 | 0.00 | 56 | 1009.8 |
| 20260507195504 | 54 | 178 | 2.0 | 9.0 | 0.00 | 0.00 | 0.00 | 57 | 1009.8 |
| 20260507195306 | 54 | 210 | 1.0 | 9.0 | 0.00 | 0.00 | 0.00 | 57 | 1009.8 |
| 20260507195104 | 53 | 173 | 1.0 | 9.0 | 0.00 | 0.00 | 0.00 | 58 | 1009.9 |
| 20260507194904 | 53 | 129 | 3.0 | 9.0 | 0.00 | 0.00 | 0.00 | 57 | 1010.0 |
| 20260507194703 | 53 | 133 | 4.0 | 9.0 | 0.00 | 0.00 | 0.00 | 59 | 1010.0 |
| 20260507194503 | 52 | 202 | 3.0 | 7.0 | 0.00 | 0.00 | 0.00 | 60 | 1009.9 |
| 20260507194303 | 52 | 238 | 2.0 | 9.0 | 0.00 | 0.00 | 0.00 | 62 | 1010.0 |
| 20260507194102 | 51 | 247 | 2.0 | 9.0 | 0.00 | 0.00 | 0.00 | 67 | 1010.0 |
| 20260507193902 | 50 | 229 | 3.0 | 10.0 | 0.00 | 0.00 | 0.00 | 66 | 1010.1 |
| 20260507193702 | 50 | 229 | 4.0 | 12.0 | 0.00 | 0.00 | 0.00 | 65 | 1010.1 |
| 20260507193501 | 50 | 223 | 4.0 | 13.0 | 0.00 | 0.00 | 0.00 | 64 | 1010.2 |
| 20260507193301 | 51 | 208 | 4.0 | 13.0 | 0.00 | 0.00 | 0.00 | 64 | 1010.2 |
| 20260507193101 | 51 | 164 | 4.0 | 13.0 | 0.00 | 0.00 | 0.00 | 63 | 1010.3 |
| 20260507192901 | 51 | 234 | 5.0 | 13.0 | 0.00 | 0.00 | 0.00 | 63 | 1010.2 |
| 20260507192700 | 52 | 233 | 5.0 | 13.0 | 0.00 | 0.00 | 0.00 | 60 | 1010.3 |
| 20260507192500 | 52 | 105 | 5.0 | 13.0 | 0.00 | 0.00 | 0.00 | 59 | 1010.4 |
| 20260507192300 | 53 | 185 | 5.0 | 13.0 | 0.00 | 0.00 | 0.00 | 58 | 1010.3 |